Time,TemperatureF,DewpointF,PressureIn,WindDirection,WindDirectionDegrees,WindSpeedMPH,WindSpeedGustMPH,Humidity,HourlyPrecipIn,Conditions,Clouds,dailyrainin,SoftwareType,DateUTC
2013-03-25 00:01:00,30.2,22.6,29.77,North,0,0.0,0.0,73,0.00,,,0.00,WUHU216HW,2013-03-25 05:01:00,
2013-03-25 00:02:00,30.2,22.6,29.77,North,0,0.0,0.0,73,2.59,,,0.18,WUHU216HW,2013-03-25 05:02:00,
2013-03-25 00:03:00,30.2,22.6,29.77,North,0,0.0,0.0,73,2.59,,,0.18,WUHU216HW,2013-03-25 05:03:00,
2013-03-25 00:06:00,30.1,22.8,29.77,North,0,0.0,0.0,74,2.59,,,0.18,WUHU216HW,2013-03-25 05:06:00,
2013-03-25 00:07:00,30.1,22.4,29.77,North,0,0.0,0.0,73,2.59,,,0.18,WUHU216HW,2013-03-25 05:07:00,
2013-03-25 00:08:00,30.1,22.4,29.77,North,0,0.0,0.0,73,2.59,,,0.18,WUHU216HW,2013-03-25 05:08:00,
2013-03-25 00:11:00,30.1,22.8,29.77,North,0,0.0,0.0,74,2.59,,,0.18,WUHU216HW,2013-03-25 05:11:00,
2013-03-25 00:12:00,29.9,22.6,29.77,North,0,0.0,0.0,74,2.59,,,0.18,WUHU216HW,2013-03-25 05:12:00,
2013-03-25 00:13:00,29.9,22.6,29.77,North,0,0.0,0.0,74,2.59,,,0.18,WUHU216HW,2013-03-25 05:13:00,
2013-03-25 00:17:00,29.9,22.6,29.77,North,0,0.0,0.0,74,2.59,,,0.18,WUHU216HW,2013-03-25 05:17:00,
2013-03-25 00:18:00,29.9,22.6,29.77,North,0,0.0,0.0,74,2.59,,,0.18,WUHU216HW,2013-03-25 05:18:00,
2013-03-25 00:22:00,29.9,22.6,29.77,North,0,0.0,0.0,74,2.59,,,0.18,WUHU216HW,2013-03-25 05:22:00,
2013-03-25 00:23:00,29.9,22.6,29.77,North,0,0.0,0.0,74,2.59,,,0.18,WUHU216HW,2013-03-25 05:23:00,
2013-03-25 00:24:00,29.9,22.6,29.77,North,0,0.0,0.0,74,2.59,,,0.18,WUHU216HW,2013-03-25 05:24:00,
2013-03-25 00:27:00,29.9,22.6,29.77,North,0,0.0,0.0,74,2.59,,,0.18,WUHU216HW,2013-03-25 05:27:00,
2013-03-25 00:28:00,29.9,22.6,29.77,North,0,0.0,0.0,74,2.59,,,0.18,WUHU216HW,2013-03-25 05:28:00,
2013-03-25 00:29:00,29.9,22.6,29.77,North,0,0.0,0.0,74,2.59,,,0.18,WUHU216HW,2013-03-25 05:29:00,
2013-03-25 00:32:00,29.9,22.6,29.77,North,0,0.0,0.0,74,2.59,,,0.18,WUHU216HW,2013-03-25 05:32:00,
2013-03-25 00:33:00,29.9,22.6,29.77,North,0,0.0,0.0,74,2.59,,,0.18,WUHU216HW,2013-03-25 05:33:00,
2013-03-25 00:34:00,29.9,22.6,29.77,North,0,0.0,0.0,74,2.59,,,0.18,WUHU216HW,2013-03-25 05:34:00,
2013-03-25 00:37:00,29.9,22.6,29.77,North,0,0.0,0.0,74,2.59,,,0.18,WUHU216HW,2013-03-25 05:37:00,
2013-03-25 00:38:00,29.9,22.6,29.77,North,0,0.0,0.0,74,2.59,,,0.18,WUHU216HW,2013-03-25 05:38:00,
2013-03-25 00:39:00,29.9,22.6,29.77,North,0,0.0,0.0,74,2.59,,,0.18,WUHU216HW,2013-03-25 05:39:00,
2013-03-25 00:42:00,29.9,22.6,29.77,North,0,0.0,0.0,74,2.59,,,0.18,WUHU216HW,2013-03-25 05:42:00,
2013-03-25 00:43:00,29.9,22.6,29.77,North,0,0.0,0.0,74,2.59,,,0.18,WUHU216HW,2013-03-25 05:43:00,
2013-03-25 00:44:00,29.9,22.6,29.77,North,0,0.0,0.0,74,2.59,,,0.18,WUHU216HW,2013-03-25 05:44:00,
2013-03-25 00:45:00,29.9,22.2,29.77,North,0,0.0,0.0,73,2.59,,,0.18,WUHU216HW,2013-03-25 05:45:00,
2013-03-25 00:47:00,29.9,22.2,29.77,North,0,0.0,0.0,73,2.59,,,0.18,WUHU216HW,2013-03-25 05:47:00,
2013-03-25 00:48:00,29.9,22.2,29.77,North,0,0.0,0.0,73,2.59,,,0.18,WUHU216HW,2013-03-25 05:48:00,
2013-03-25 00:49:00,29.9,22.2,29.77,North,0,0.0,0.0,73,2.59,,,0.18,WUHU216HW,2013-03-25 05:49:00,
2013-03-25 00:50:00,29.9,22.2,29.77,North,0,0.0,0.0,73,2.59,,,0.18,WUHU216HW,2013-03-25 05:50:00,
2013-03-25 00:52:00,29.9,22.2,29.77,North,0,0.0,0.0,73,2.59,,,0.18,WUHU216HW,2013-03-25 05:52:00,
2013-03-25 00:53:00,29.7,22.1,29.77,North,0,0.0,0.0,73,2.59,,,0.18,WUHU216HW,2013-03-25 05:53:00,
2013-03-25 00:54:00,29.7,22.1,29.77,North,0,0.0,0.0,73,2.59,,,0.18,WUHU216HW,2013-03-25 05:54:00,
2013-03-25 00:55:00,29.7,22.1,29.77,North,0,0.0,0.0,73,2.59,,,0.18,WUHU216HW,2013-03-25 05:55:00,
2013-03-25 00:57:00,29.5,21.9,29.77,North,0,0.0,0.0,73,2.59,,,0.18,WUHU216HW,2013-03-25 05:57:00,
2013-03-25 00:58:00,29.5,21.9,29.77,North,0,0.0,0.0,73,2.59,,,0.18,WUHU216HW,2013-03-25 05:58:00,
2013-03-25 00:59:00,29.5,21.9,29.77,North,0,0.0,0.0,73,2.59,,,0.18,WUHU216HW,2013-03-25 05:59:00,
2013-03-25 01:00:00,29.5,21.9,29.77,North,0,0.0,0.0,73,0.00,,,0.18,WUHU216HW,2013-03-25 06:00:00,
2013-03-25 01:03:00,29.5,21.9,29.77,North,0,0.0,0.0,73,0.00,,,0.35,WUHU216HW,2013-03-25 06:03:00,
2013-03-25 01:04:00,29.3,21.8,29.77,North,0,0.0,0.0,73,0.00,,,0.35,WUHU216HW,2013-03-25 06:04:00,
2013-03-25 01:05:00,29.3,21.8,29.77,North,0,0.0,0.0,73,0.00,,,0.35,WUHU216HW,2013-03-25 06:05:00,
2013-03-25 01:08:00,29.3,21.8,29.77,North,0,0.0,0.0,73,0.00,,,0.35,WUHU216HW,2013-03-25 06:08:00,
2013-03-25 01:09:00,29.3,21.8,29.77,North,0,0.0,0.0,73,0.00,,,0.35,WUHU216HW,2013-03-25 06:09:00,
2013-03-25 01:10:00,29.2,21.6,29.77,North,0,0.0,0.0,73,0.00,,,0.35,WUHU216HW,2013-03-25 06:10:00,
2013-03-25 01:13:00,29.2,21.9,29.77,North,0,0.0,0.0,74,0.00,,,0.35,WUHU216HW,2013-03-25 06:13:00,
2013-03-25 01:14:00,29.2,21.6,29.77,North,0,0.0,0.0,73,0.00,,,0.35,WUHU216HW,2013-03-25 06:14:00,
2013-03-25 01:15:00,29.2,21.6,29.77,North,0,0.0,0.0,73,0.00,,,0.35,WUHU216HW,2013-03-25 06:15:00,
2013-03-25 01:18:00,29.2,21.6,29.77,North,0,0.0,0.0,73,0.00,,,0.35,WUHU216HW,2013-03-25 06:18:00,
2013-03-25 01:19:00,29.2,21.6,29.77,North,0,0.0,0.0,73,0.00,,,0.35,WUHU216HW,2013-03-25 06:19:00,
2013-03-25 01:20:00,29.2,21.6,29.77,North,0,0.0,0.0,73,0.00,,,0.35,WUHU216HW,2013-03-25 06:20:00,
2013-03-25 01:23:00,29.0,21.4,29.77,North,0,0.0,0.0,73,0.00,,,0.35,WUHU216HW,2013-03-25 06:23:00,
2013-03-25 01:25:00,29.0,21.4,29.77,North,0,0.0,0.0,73,0.00,,,0.35,WUHU216HW,2013-03-25 06:25:00,
2013-03-25 01:26:00,29.0,21.4,29.77,North,0,0.0,0.0,73,0.00,,,0.35,WUHU216HW,2013-03-25 06:26:00,
2013-03-25 01:28:00,28.8,21.3,29.77,North,0,0.0,0.0,73,0.00,,,0.35,WUHU216HW,2013-03-25 06:28:00,
2013-03-25 01:29:00,28.8,21.3,29.77,North,0,0.0,0.0,73,0.00,,,0.35,WUHU216HW,2013-03-25 06:29:00,
2013-03-25 01:30:00,28.8,21.3,29.77,North,0,0.0,0.0,73,0.00,,,0.35,WUHU216HW,2013-03-25 06:30:00,
2013-03-25 01:31:00,28.8,21.3,29.77,North,0,0.0,0.0,73,0.00,,,0.35,WUHU216HW,2013-03-25 06:31:00,
2013-03-25 01:33:00,28.8,21.5,29.77,North,0,0.0,0.0,74,0.00,,,0.35,WUHU216HW,2013-03-25 06:33:00,
2013-03-25 01:34:00,28.8,21.5,29.77,North,0,0.0,0.0,74,0.00,,,0.35,WUHU216HW,2013-03-25 06:34:00,
2013-03-25 01:35:00,28.6,21.1,29.77,North,0,0.0,0.0,73,0.00,,,0.35,WUHU216HW,2013-03-25 06:35:00,
2013-03-25 01:36:00,28.6,21.1,29.77,North,0,0.0,0.0,73,0.00,,,0.35,WUHU216HW,2013-03-25 06:36:00,
2013-03-25 01:38:00,28.6,21.1,29.77,North,0,0.0,0.0,73,0.00,,,0.35,WUHU216HW,2013-03-25 06:38:00,
2013-03-25 01:39:00,28.6,21.1,29.77,North,0,0.0,0.0,73,0.00,,,0.35,WUHU216HW,2013-03-25 06:39:00,
2013-03-25 01:40:00,28.6,21.1,29.77,North,0,0.0,0.0,73,0.00,,,0.35,WUHU216HW,2013-03-25 06:40:00,
2013-03-25 01:42:00,28.4,20.9,29.77,North,0,0.0,0.0,73,0.00,,,0.35,WUHU216HW,2013-03-25 06:42:00,
2013-03-25 01:43:00,28.4,20.9,29.77,North,0,0.0,0.0,73,0.00,,,0.35,WUHU216HW,2013-03-25 06:43:00,
2013-03-25 01:44:00,28.4,20.9,29.77,North,0,0.0,0.0,73,0.00,,,0.35,WUHU216HW,2013-03-25 06:44:00,
2013-03-25 01:45:00,28.4,20.9,29.77,North,0,0.0,0.0,73,0.00,,,0.35,WUHU216HW,2013-03-25 06:45:00,
2013-03-25 01:47:00,28.4,21.3,29.77,North,0,0.0,0.0,74,0.00,,,0.35,WUHU216HW,2013-03-25 06:47:00,
2013-03-25 01:48:00,28.4,21.3,29.77,North,0,0.0,0.0,74,0.00,,,0.35,WUHU216HW,2013-03-25 06:48:00,
2013-03-25 01:49:00,28.4,21.3,29.77,North,0,0.0,0.0,74,0.00,,,0.35,WUHU216HW,2013-03-25 06:49:00,
2013-03-25 01:50:00,28.4,21.3,29.77,North,0,0.0,0.0,74,0.00,,,0.35,WUHU216HW,2013-03-25 06:50:00,
2013-03-25 01:52:00,28.4,21.3,29.77,North,0,0.0,0.0,74,0.00,,,0.35,WUHU216HW,2013-03-25 06:52:00,
2013-03-25 01:54:00,28.4,21.3,29.77,North,0,0.0,0.0,74,0.00,,,0.35,WUHU216HW,2013-03-25 06:54:00,
2013-03-25 01:55:00,28.6,21.3,29.77,North,0,0.0,0.0,74,0.00,,,0.35,WUHU216HW,2013-03-25 06:55:00,
2013-03-25 01:58:00,28.6,21.3,29.77,North,0,0.0,0.0,74,0.00,,,0.35,WUHU216HW,2013-03-25 06:58:00,
2013-03-25 01:59:00,28.6,21.3,29.76,North,0,0.0,0.0,74,0.00,,,0.35,WUHU216HW,2013-03-25 06:59:00,
2013-03-25 02:00:00,28.6,21.3,29.77,North,0,0.0,0.0,74,0.00,,,0.35,WUHU216HW,2013-03-25 07:00:00,
2013-03-25 02:03:00,28.6,21.4,29.76,North,0,0.0,0.0,74,0.00,,,0.52,WUHU216HW,2013-03-25 07:03:00,
2013-03-25 02:04:00,28.6,21.4,29.77,North,0,0.0,0.0,74,0.00,,,0.52,WUHU216HW,2013-03-25 07:04:00,
2013-03-25 02:05:00,28.6,21.4,29.77,North,0,0.0,0.0,74,0.00,,,0.52,WUHU216HW,2013-03-25 07:05:00,
2013-03-25 02:08:00,28.4,21.2,29.77,North,0,0.0,0.0,74,0.00,,,0.52,WUHU216HW,2013-03-25 07:08:00,
2013-03-25 02:09:00,28.4,21.2,29.77,North,0,0.0,0.0,74,0.00,,,0.52,WUHU216HW,2013-03-25 07:09:00,
2013-03-25 02:10:00,28.4,21.2,29.77,North,0,0.0,0.0,74,0.00,,,0.52,WUHU216HW,2013-03-25 07:10:00,
2013-03-25 02:14:00,28.4,21.3,29.77,North,0,0.0,0.0,74,2.59,,,0.52,WUHU216HW,2013-03-25 07:14:00,
2013-03-25 02:15:00,28.4,21.3,29.77,North,0,0.0,0.0,74,2.59,,,0.52,WUHU216HW,2013-03-25 07:15:00,
2013-03-25 02:16:00,28.4,21.3,29.77,North,0,0.0,0.0,74,2.59,,,0.52,WUHU216HW,2013-03-25 07:16:00,
2013-03-25 02:19:00,28.4,21.3,29.77,North,0,0.0,0.0,74,2.59,,,0.52,WUHU216HW,2013-03-25 07:19:00,
2013-03-25 02:20:00,28.4,21.3,29.76,North,0,0.0,0.0,74,2.59,,,0.52,WUHU216HW,2013-03-25 07:20:00,
2013-03-25 02:21:00,28.4,21.5,29.76,North,0,0.0,0.0,75,2.59,,,0.52,WUHU216HW,2013-03-25 07:21:00,
2013-03-25 02:24:00,28.4,21.5,29.77,North,0,0.0,0.0,75,2.59,,,0.52,WUHU216HW,2013-03-25 07:24:00,
2013-03-25 02:25:00,28.4,21.5,29.77,North,0,0.0,0.0,75,2.59,,,0.52,WUHU216HW,2013-03-25 07:25:00,
2013-03-25 02:27:00,28.4,21.5,29.77,North,0,0.0,0.0,75,2.59,,,0.52,WUHU216HW,2013-03-25 07:27:00,
2013-03-25 02:29:00,28.4,21.5,29.77,North,0,0.0,0.0,75,2.59,,,0.52,WUHU216HW,2013-03-25 07:29:00,
2013-03-25 02:30:00,28.4,21.5,29.77,North,0,0.0,0.0,75,2.59,,,0.52,WUHU216HW,2013-03-25 07:30:00,
2013-03-25 02:32:00,28.4,21.5,29.77,North,0,0.0,0.0,75,2.59,,,0.52,WUHU216HW,2013-03-25 07:32:00,
2013-03-25 02:34:00,28.3,21.3,29.77,North,0,0.0,0.0,75,2.59,,,0.52,WUHU216HW,2013-03-25 07:34:00,
2013-03-25 02:35:00,28.3,21.3,29.77,North,0,0.0,0.0,75,2.59,,,0.52,WUHU216HW,2013-03-25 07:35:00,
2013-03-25 02:37:00,28.3,21.3,29.77,North,0,0.0,0.0,75,2.59,,,0.52,WUHU216HW,2013-03-25 07:37:00,
2013-03-25 02:39:00,28.3,21.3,29.77,North,0,0.0,0.0,75,2.59,,,0.52,WUHU216HW,2013-03-25 07:39:00,
2013-03-25 02:40:00,28.3,21.3,29.77,North,0,0.0,0.0,75,2.59,,,0.52,WUHU216HW,2013-03-25 07:40:00,
2013-03-25 02:42:00,28.3,21.3,29.76,North,0,0.0,0.0,75,2.59,,,0.52,WUHU216HW,2013-03-25 07:42:00,
2013-03-25 02:44:00,28.3,21.6,29.76,North,0,0.0,0.0,76,2.59,,,0.52,WUHU216HW,2013-03-25 07:44:00,
2013-03-25 02:45:00,28.3,21.3,29.77,North,0,0.0,0.0,75,2.59,,,0.52,WUHU216HW,2013-03-25 07:45:00,
2013-03-25 02:47:00,28.3,21.6,29.76,North,0,0.0,0.0,76,2.59,,,0.52,WUHU216HW,2013-03-25 07:47:00,
2013-03-25 02:48:00,28.3,21.6,29.77,North,0,0.0,0.0,76,2.59,,,0.52,WUHU216HW,2013-03-25 07:48:00,
2013-03-25 02:49:00,28.3,21.6,29.76,North,0,0.0,0.0,76,2.59,,,0.52,WUHU216HW,2013-03-25 07:49:00,
2013-03-25 02:50:00,28.3,21.3,29.77,North,0,0.0,0.0,75,2.59,,,0.52,WUHU216HW,2013-03-25 07:50:00,
2013-03-25 02:52:00,28.3,21.6,29.76,North,0,0.0,0.0,76,2.59,,,0.52,WUHU216HW,2013-03-25 07:52:00,
2013-03-25 02:53:00,28.3,21.6,29.76,North,0,0.0,0.0,76,2.59,,,0.52,WUHU216HW,2013-03-25 07:53:00,
2013-03-25 02:55:00,28.3,21.3,29.76,North,0,0.0,0.0,75,2.59,,,0.52,WUHU216HW,2013-03-25 07:55:00,
2013-03-25 02:57:00,28.3,21.3,29.76,North,0,0.0,0.0,75,2.59,,,0.52,WUHU216HW,2013-03-25 07:57:00,
2013-03-25 02:58:00,28.4,21.5,29.76,North,0,0.0,0.0,75,2.59,,,0.52,WUHU216HW,2013-03-25 07:58:00,
2013-03-25 03:00:00,28.4,21.5,29.76,North,0,0.0,0.0,75,2.59,,,0.52,WUHU216HW,2013-03-25 08:00:00,
2013-03-25 03:02:00,28.4,21.5,29.76,North,0,0.0,0.0,75,2.59,,,0.70,WUHU216HW,2013-03-25 08:02:00,
2013-03-25 03:03:00,28.3,21.3,29.76,North,0,0.0,0.0,75,2.59,,,0.70,WUHU216HW,2013-03-25 08:03:00,
2013-03-25 03:05:00,28.4,21.5,29.76,North,0,0.0,0.0,75,2.59,,,0.70,WUHU216HW,2013-03-25 08:05:00,
2013-03-25 03:07:00,28.4,21.5,29.76,North,0,0.0,0.0,75,2.59,,,0.70,WUHU216HW,2013-03-25 08:07:00,
2013-03-25 03:08:00,28.4,21.8,29.76,North,0,0.0,0.0,76,2.59,,,0.70,WUHU216HW,2013-03-25 08:08:00,
2013-03-25 03:10:00,28.4,21.5,29.76,North,0,0.0,0.0,75,2.59,,,0.70,WUHU216HW,2013-03-25 08:10:00,
2013-03-25 03:11:00,28.4,21.5,29.76,North,0,0.0,0.0,75,2.59,,,0.70,WUHU216HW,2013-03-25 08:11:00,
2013-03-25 03:12:00,28.4,21.5,29.76,North,0,0.0,0.0,75,2.59,,,0.70,WUHU216HW,2013-03-25 08:12:00,
2013-03-25 03:14:00,28.4,21.5,29.75,North,0,0.0,0.0,75,2.59,,,0.70,WUHU216HW,2013-03-25 08:14:00,
2013-03-25 03:15:00,28.4,21.8,29.76,North,0,0.0,0.0,76,2.59,,,0.70,WUHU216HW,2013-03-25 08:15:00,
2013-03-25 03:17:00,28.4,21.8,29.76,North,0,0.0,0.0,76,2.59,,,0.70,WUHU216HW,2013-03-25 08:17:00,
2013-03-25 03:19:00,28.6,22.0,29.76,North,0,0.0,0.0,76,2.59,,,0.70,WUHU216HW,2013-03-25 08:19:00,
2013-03-25 03:20:00,28.6,22.0,29.76,North,0,0.0,0.0,76,2.59,,,0.70,WUHU216HW,2013-03-25 08:20:00,
2013-03-25 03:22:00,28.6,22.0,29.75,North,0,0.0,0.0,76,2.59,,,0.70,WUHU216HW,2013-03-25 08:22:00,
2013-03-25 03:24:00,28.4,21.8,29.75,North,0,0.0,0.0,76,2.59,,,0.70,WUHU216HW,2013-03-25 08:24:00,
2013-03-25 03:25:00,28.4,21.8,29.75,North,0,0.0,0.0,76,2.59,,,0.70,WUHU216HW,2013-03-25 08:25:00,
2013-03-25 03:27:00,28.4,21.8,29.75,North,0,0.0,0.0,76,2.59,,,0.70,WUHU216HW,2013-03-25 08:27:00,
2013-03-25 03:29:00,28.4,21.8,29.75,North,0,0.0,0.0,76,2.59,,,0.70,WUHU216HW,2013-03-25 08:29:00,
2013-03-25 03:30:00,28.4,21.8,29.75,North,0,0.0,0.0,76,2.59,,,0.70,WUHU216HW,2013-03-25 08:30:00,
2013-03-25 03:31:00,28.4,21.8,29.75,North,0,0.0,0.0,76,2.59,,,0.70,WUHU216HW,2013-03-25 08:31:00,
2013-03-25 03:32:00,28.4,21.8,29.75,North,0,0.0,0.0,76,2.59,,,0.70,WUHU216HW,2013-03-25 08:32:00,
2013-03-25 03:34:00,28.4,21.8,29.75,North,0,0.0,0.0,76,2.59,,,0.70,WUHU216HW,2013-03-25 08:34:00,
2013-03-25 03:35:00,28.4,22.2,29.75,North,0,0.0,0.0,77,2.59,,,0.70,WUHU216HW,2013-03-25 08:35:00,
2013-03-25 03:36:00,28.4,22.2,29.75,North,0,0.0,0.0,77,2.59,,,0.70,WUHU216HW,2013-03-25 08:36:00,
2013-03-25 03:37:00,28.4,22.2,29.75,North,0,0.0,0.0,77,2.59,,,0.70,WUHU216HW,2013-03-25 08:37:00,
2013-03-25 03:40:00,28.4,21.8,29.75,North,0,0.0,0.0,76,2.59,,,0.70,WUHU216HW,2013-03-25 08:40:00,
2013-03-25 03:41:00,28.4,22.2,29.75,North,0,0.0,0.0,77,2.59,,,0.70,WUHU216HW,2013-03-25 08:41:00,
2013-03-25 03:42:00,28.4,22.2,29.75,North,0,0.0,0.0,77,2.59,,,0.70,WUHU216HW,2013-03-25 08:42:00,
2013-03-25 03:45:00,28.4,22.2,29.75,North,0,0.0,0.0,77,2.59,,,0.70,WUHU216HW,2013-03-25 08:45:00,
2013-03-25 03:46:00,28.4,22.2,29.75,North,0,0.0,0.0,77,2.59,,,0.70,WUHU216HW,2013-03-25 08:46:00,
2013-03-25 03:47:00,28.4,22.2,29.75,North,0,0.0,0.0,77,2.59,,,0.70,WUHU216HW,2013-03-25 08:47:00,
2013-03-25 03:48:00,28.4,22.2,29.75,North,0,0.0,0.0,77,2.59,,,0.70,WUHU216HW,2013-03-25 08:48:00,
2013-03-25 03:50:00,28.4,22.2,29.75,North,0,0.0,0.0,77,2.59,,,0.70,WUHU216HW,2013-03-25 08:50:00,
2013-03-25 03:52:00,28.4,22.2,29.75,North,0,0.0,0.0,77,2.59,,,0.70,WUHU216HW,2013-03-25 08:52:00,
2013-03-25 03:53:00,28.4,22.2,29.75,North,0,0.0,0.0,77,2.59,,,0.70,WUHU216HW,2013-03-25 08:53:00,
2013-03-25 03:55:00,28.4,22.2,29.75,North,0,0.0,0.0,77,2.59,,,0.70,WUHU216HW,2013-03-25 08:55:00,
2013-03-25 03:57:00,28.4,22.2,29.75,North,0,0.0,0.0,77,2.59,,,0.70,WUHU216HW,2013-03-25 08:57:00,
2013-03-25 03:58:00,28.4,22.2,29.75,North,0,0.0,0.0,77,2.59,,,0.70,WUHU216HW,2013-03-25 08:58:00,
2013-03-25 04:00:00,28.4,22.2,29.75,North,0,0.0,0.0,77,0.00,,,0.70,WUHU216HW,2013-03-25 09:00:00,
2013-03-25 04:02:00,28.4,22.2,29.75,North,0,0.0,0.0,77,2.59,,,0.87,WUHU216HW,2013-03-25 09:02:00,
2013-03-25 04:03:00,28.4,22.2,29.75,North,0,0.0,0.0,77,2.59,,,0.87,WUHU216HW,2013-03-25 09:03:00,
2013-03-25 04:05:00,28.4,22.2,29.75,North,0,0.0,0.0,77,2.59,,,0.87,WUHU216HW,2013-03-25 09:05:00,
2013-03-25 04:08:00,28.4,22.2,29.76,North,0,0.0,0.0,77,2.59,,,0.87,WUHU216HW,2013-03-25 09:08:00,
2013-03-25 04:10:00,28.4,22.2,29.75,North,0,0.0,0.0,77,2.59,,,0.87,WUHU216HW,2013-03-25 09:10:00,
2013-03-25 04:13:00,28.4,22.2,29.76,North,0,0.0,0.0,77,2.59,,,0.87,WUHU216HW,2013-03-25 09:13:00,
2013-03-25 04:15:00,28.4,22.2,29.75,North,0,0.0,0.0,77,2.59,,,0.87,WUHU216HW,2013-03-25 09:15:00,
2013-03-25 04:18:00,28.4,22.4,29.75,North,0,0.0,0.0,78,2.59,,,0.87,WUHU216HW,2013-03-25 09:18:00,
2013-03-25 04:20:00,28.4,22.2,29.75,North,0,0.0,0.0,77,2.59,,,0.87,WUHU216HW,2013-03-25 09:20:00,
2013-03-25 04:23:00,28.4,22.4,29.75,North,0,0.0,0.0,78,2.59,,,0.87,WUHU216HW,2013-03-25 09:23:00,
2013-03-25 04:24:00,28.4,22.4,29.75,North,0,0.0,0.0,78,2.59,,,0.87,WUHU216HW,2013-03-25 09:24:00,
2013-03-25 04:25:00,28.6,22.6,29.75,North,0,0.0,0.0,78,2.59,,,0.87,WUHU216HW,2013-03-25 09:25:00,
2013-03-25 04:28:00,28.6,22.6,29.75,North,0,0.0,0.0,78,2.59,,,0.87,WUHU216HW,2013-03-25 09:28:00,
2013-03-25 04:29:00,28.6,22.6,29.75,North,0,0.0,0.0,78,2.59,,,0.87,WUHU216HW,2013-03-25 09:29:00,
2013-03-25 04:30:00,28.6,22.6,29.75,North,0,0.0,0.0,78,2.59,,,0.87,WUHU216HW,2013-03-25 09:30:00,
2013-03-25 04:33:00,28.6,22.6,29.75,North,0,0.0,0.0,78,2.59,,,0.87,WUHU216HW,2013-03-25 09:33:00,
2013-03-25 04:35:00,28.6,22.3,29.75,North,0,0.0,0.0,77,2.59,,,0.87,WUHU216HW,2013-03-25 09:35:00,
2013-03-25 04:38:00,28.6,22.3,29.75,North,0,0.0,0.0,77,2.59,,,0.87,WUHU216HW,2013-03-25 09:38:00,
2013-03-25 04:40:00,28.6,22.3,29.75,North,0,0.0,0.0,77,2.59,,,0.87,WUHU216HW,2013-03-25 09:40:00,
2013-03-25 04:43:00,28.4,22.4,29.75,North,0,0.0,0.0,78,2.59,,,0.87,WUHU216HW,2013-03-25 09:43:00,
2013-03-25 04:44:00,28.4,22.4,29.75,North,0,0.0,0.0,78,2.59,,,0.87,WUHU216HW,2013-03-25 09:44:00,
2013-03-25 04:45:00,28.4,22.4,29.75,North,0,0.0,0.0,78,2.59,,,0.87,WUHU216HW,2013-03-25 09:45:00,
2013-03-25 04:46:00,28.4,22.4,29.75,North,0,0.0,0.0,78,2.59,,,0.87,WUHU216HW,2013-03-25 09:46:00,
2013-03-25 04:48:00,28.4,22.4,29.75,North,0,0.0,0.0,78,2.59,,,0.87,WUHU216HW,2013-03-25 09:48:00,
2013-03-25 04:49:00,28.4,22.4,29.75,North,0,0.0,0.0,78,2.59,,,0.87,WUHU216HW,2013-03-25 09:49:00,
2013-03-25 04:50:00,28.4,22.4,29.75,North,0,0.0,0.0,78,2.59,,,0.87,WUHU216HW,2013-03-25 09:50:00,
2013-03-25 04:51:00,28.4,22.4,29.75,North,0,0.0,0.0,78,2.59,,,0.87,WUHU216HW,2013-03-25 09:51:00,
2013-03-25 04:54:00,28.4,22.4,29.75,North,0,0.0,0.0,78,2.59,,,0.87,WUHU216HW,2013-03-25 09:54:00,
2013-03-25 04:55:00,28.3,22.2,29.75,North,0,0.0,0.0,78,2.59,,,0.87,WUHU216HW,2013-03-25 09:55:00,
2013-03-25 04:56:00,28.3,22.2,29.75,North,0,0.0,0.0,78,2.59,,,0.87,WUHU216HW,2013-03-25 09:56:00,
2013-03-25 04:59:00,28.3,22.2,29.75,North,0,0.0,0.0,78,2.59,,,0.87,WUHU216HW,2013-03-25 09:59:00,
2013-03-25 05:00:00,28.3,22.6,29.75,North,0,0.0,0.0,79,2.59,,,0.87,WUHU216HW,2013-03-25 10:00:00,
2013-03-25 05:01:00,28.3,22.6,29.75,North,0,0.0,0.0,79,2.59,,,1.03,WUHU216HW,2013-03-25 10:01:00,
2013-03-25 05:04:00,28.3,22.6,29.75,North,0,0.0,0.0,79,2.59,,,1.20,WUHU216HW,2013-03-25 10:04:00,
2013-03-25 05:05:00,28.3,22.6,29.75,North,0,0.0,0.0,79,2.59,,,1.20,WUHU216HW,2013-03-25 10:05:00,
2013-03-25 05:06:00,28.3,22.6,29.75,North,0,0.0,0.0,79,2.59,,,1.20,WUHU216HW,2013-03-25 10:06:00,
2013-03-25 05:09:00,28.3,22.6,29.75,North,0,0.0,0.0,79,2.59,,,1.20,WUHU216HW,2013-03-25 10:09:00,
2013-03-25 05:10:00,28.3,22.6,29.75,North,0,0.0,0.0,79,2.59,,,1.20,WUHU216HW,2013-03-25 10:10:00,
2013-03-25 05:12:00,28.3,22.6,29.75,North,0,0.0,0.0,79,2.59,,,1.20,WUHU216HW,2013-03-25 10:12:00,
2013-03-25 05:14:00,28.3,22.6,29.76,North,0,0.0,0.0,79,2.59,,,1.20,WUHU216HW,2013-03-25 10:14:00,
2013-03-25 05:15:00,28.3,22.6,29.76,North,0,0.0,0.0,79,2.59,,,1.20,WUHU216HW,2013-03-25 10:15:00,
2013-03-25 05:17:00,28.3,22.6,29.76,North,0,0.0,0.0,79,2.59,,,1.20,WUHU216HW,2013-03-25 10:17:00,
2013-03-25 05:19:00,28.3,22.6,29.76,North,0,0.0,0.0,79,2.59,,,1.20,WUHU216HW,2013-03-25 10:19:00,
2013-03-25 05:21:00,28.3,22.6,29.76,North,0,0.0,0.0,79,2.59,,,1.20,WUHU216HW,2013-03-25 10:21:00,
2013-03-25 05:22:00,28.3,22.6,29.75,North,0,0.0,0.0,79,2.59,,,1.20,WUHU216HW,2013-03-25 10:22:00,
2013-03-25 05:24:00,28.3,22.6,29.76,North,0,0.0,0.0,79,2.59,,,1.20,WUHU216HW,2013-03-25 10:24:00,
2013-03-25 05:26:00,28.3,22.6,29.76,North,0,0.0,0.0,79,2.59,,,1.20,WUHU216HW,2013-03-25 10:26:00,
2013-03-25 05:28:00,28.3,22.6,29.76,North,0,0.0,0.0,79,2.59,,,1.20,WUHU216HW,2013-03-25 10:28:00,
2013-03-25 05:30:00,28.4,22.8,29.76,North,0,0.0,0.0,79,2.59,,,1.20,WUHU216HW,2013-03-25 10:30:00,
2013-03-25 05:31:00,28.3,22.6,29.76,North,0,0.0,0.0,79,2.59,,,1.20,WUHU216HW,2013-03-25 10:31:00,
2013-03-25 05:33:00,28.4,22.8,29.76,North,0,0.0,0.0,79,2.59,,,1.20,WUHU216HW,2013-03-25 10:33:00,
2013-03-25 05:35:00,28.4,22.8,29.76,North,0,0.0,0.0,79,2.59,,,1.20,WUHU216HW,2013-03-25 10:35:00,
2013-03-25 05:37:00,28.4,22.8,29.76,North,0,0.0,0.0,79,2.59,,,1.20,WUHU216HW,2013-03-25 10:37:00,
2013-03-25 05:38:00,28.4,22.8,29.76,North,0,0.0,0.0,79,2.59,,,1.20,WUHU216HW,2013-03-25 10:38:00,
2013-03-25 05:40:00,28.4,22.8,29.76,North,0,0.0,0.0,79,2.59,,,1.20,WUHU216HW,2013-03-25 10:40:00,
2013-03-25 05:42:00,28.4,22.8,29.76,North,0,0.0,0.0,79,2.59,,,1.20,WUHU216HW,2013-03-25 10:42:00,
2013-03-25 05:43:00,28.4,22.8,29.76,North,0,0.0,0.0,79,2.59,,,1.20,WUHU216HW,2013-03-25 10:43:00,
2013-03-25 05:45:00,28.4,22.8,29.76,North,0,0.0,0.0,79,2.59,,,1.20,WUHU216HW,2013-03-25 10:45:00,
2013-03-25 05:47:00,28.4,22.8,29.77,North,0,0.0,0.0,79,2.59,,,1.20,WUHU216HW,2013-03-25 10:47:00,
2013-03-25 05:48:00,28.4,22.8,29.77,North,0,0.0,0.0,79,2.59,,,1.20,WUHU216HW,2013-03-25 10:48:00,
2013-03-25 05:50:00,28.4,22.8,29.77,North,0,0.0,0.0,79,2.59,,,1.20,WUHU216HW,2013-03-25 10:50:00,
2013-03-25 05:52:00,28.4,22.8,29.77,North,0,0.0,0.0,79,2.59,,,1.20,WUHU216HW,2013-03-25 10:52:00,
2013-03-25 05:53:00,28.4,22.8,29.77,North,0,0.0,0.0,79,2.59,,,1.20,WUHU216HW,2013-03-25 10:53:00,
2013-03-25 05:55:00,28.4,22.8,29.77,North,0,0.0,0.0,79,2.59,,,1.20,WUHU216HW,2013-03-25 10:55:00,
2013-03-25 05:56:00,28.4,22.8,29.77,North,0,0.0,0.0,79,2.59,,,1.20,WUHU216HW,2013-03-25 10:56:00,
2013-03-25 05:57:00,28.4,22.8,29.77,North,0,0.0,0.0,79,2.59,,,1.20,WUHU216HW,2013-03-25 10:57:00,
2013-03-25 05:58:00,28.4,22.8,29.77,North,0,0.0,0.0,79,2.59,,,1.20,WUHU216HW,2013-03-25 10:58:00,
2013-03-25 06:00:00,28.4,22.8,29.77,North,0,0.0,0.0,79,0.00,,,1.20,WUHU216HW,2013-03-25 11:00:00,
2013-03-25 06:01:00,28.4,22.8,29.77,North,0,0.0,0.0,79,2.59,,,1.20,WUHU216HW,2013-03-25 11:01:00,
2013-03-25 06:02:00,28.3,22.6,29.77,North,0,0.0,0.0,79,2.59,,,1.38,WUHU216HW,2013-03-25 11:02:00,
2013-03-25 06:04:00,28.4,22.8,29.77,North,0,0.0,0.0,79,2.59,,,1.38,WUHU216HW,2013-03-25 11:04:00,
2013-03-25 06:06:00,28.3,22.6,29.77,North,0,0.0,0.0,79,2.59,,,1.38,WUHU216HW,2013-03-25 11:06:00,
2013-03-25 06:07:00,28.3,22.6,29.77,North,0,0.0,0.0,79,2.59,,,1.38,WUHU216HW,2013-03-25 11:07:00,
2013-03-25 06:08:00,28.3,22.6,29.77,North,0,0.0,0.0,79,2.59,,,1.38,WUHU216HW,2013-03-25 11:08:00,
2013-03-25 06:09:00,28.3,22.6,29.77,North,0,0.0,0.0,79,2.59,,,1.38,WUHU216HW,2013-03-25 11:09:00,
2013-03-25 06:11:00,28.3,22.6,29.77,North,0,0.0,0.0,79,2.59,,,1.38,WUHU216HW,2013-03-25 11:11:00,
2013-03-25 06:12:00,28.3,22.6,29.77,North,0,0.0,0.0,79,2.59,,,1.38,WUHU216HW,2013-03-25 11:12:00,
2013-03-25 06:13:00,28.3,22.6,29.77,North,0,0.0,0.0,79,2.59,,,1.38,WUHU216HW,2013-03-25 11:13:00,
2013-03-25 06:14:00,28.3,22.6,29.77,North,0,0.0,0.0,79,2.59,,,1.38,WUHU216HW,2013-03-25 11:14:00,
2013-03-25 06:16:00,28.3,22.6,29.77,North,0,0.0,0.0,79,2.59,,,1.38,WUHU216HW,2013-03-25 11:16:00,
2013-03-25 06:17:00,28.1,22.4,29.77,North,0,0.0,0.0,79,2.59,,,1.38,WUHU216HW,2013-03-25 11:17:00,
2013-03-25 06:18:00,28.1,22.4,29.77,North,0,0.0,0.0,79,2.59,,,1.38,WUHU216HW,2013-03-25 11:18:00,
2013-03-25 06:19:00,28.1,22.4,29.77,North,0,0.0,0.0,79,2.59,,,1.38,WUHU216HW,2013-03-25 11:19:00,
2013-03-25 06:21:00,28.1,22.4,29.77,North,0,0.0,0.0,79,2.59,,,1.38,WUHU216HW,2013-03-25 11:21:00,
2013-03-25 06:22:00,28.1,22.4,29.77,North,0,0.0,0.0,79,2.59,,,1.38,WUHU216HW,2013-03-25 11:22:00,
2013-03-25 06:23:00,28.1,22.4,29.77,North,0,0.0,0.0,79,2.59,,,1.38,WUHU216HW,2013-03-25 11:23:00,
2013-03-25 06:24:00,28.1,22.4,29.77,North,0,0.0,0.0,79,2.59,,,1.38,WUHU216HW,2013-03-25 11:24:00,
2013-03-25 06:26:00,28.1,22.4,29.77,North,0,0.0,0.0,79,2.59,,,1.38,WUHU216HW,2013-03-25 11:26:00,
2013-03-25 06:27:00,28.1,22.4,29.78,North,0,0.0,0.0,79,2.59,,,1.38,WUHU216HW,2013-03-25 11:27:00,
2013-03-25 06:28:00,28.1,22.4,29.77,North,0,0.0,0.0,79,2.59,,,1.38,WUHU216HW,2013-03-25 11:28:00,
2013-03-25 06:29:00,28.1,22.4,29.78,North,0,0.0,0.0,79,2.59,,,1.38,WUHU216HW,2013-03-25 11:29:00,
2013-03-25 06:31:00,28.1,22.4,29.77,North,0,0.0,0.0,79,2.59,,,1.38,WUHU216HW,2013-03-25 11:31:00,
2013-03-25 06:33:00,28.1,22.7,29.78,North,0,0.0,0.0,80,2.59,,,1.38,WUHU216HW,2013-03-25 11:33:00,
2013-03-25 06:35:00,27.9,22.2,29.78,North,0,0.0,0.0,79,2.59,,,1.38,WUHU216HW,2013-03-25 11:35:00,
2013-03-25 06:36:00,27.9,22.5,29.78,North,0,0.0,0.0,80,2.59,,,1.38,WUHU216HW,2013-03-25 11:36:00,
2013-03-25 06:38:00,27.9,22.2,29.78,North,0,0.0,0.0,79,2.59,,,1.38,WUHU216HW,2013-03-25 11:38:00,
2013-03-25 06:39:00,27.9,22.2,29.78,North,0,0.0,0.0,79,2.59,,,1.38,WUHU216HW,2013-03-25 11:39:00,
2013-03-25 06:40:00,27.9,22.5,29.78,North,0,0.0,0.0,80,2.59,,,1.38,WUHU216HW,2013-03-25 11:40:00,
2013-03-25 06:42:00,27.9,22.5,29.78,North,0,0.0,0.0,80,2.59,,,1.38,WUHU216HW,2013-03-25 11:42:00,
2013-03-25 06:43:00,27.9,22.5,29.78,North,0,0.0,0.0,80,2.59,,,1.38,WUHU216HW,2013-03-25 11:43:00,
2013-03-25 06:44:00,27.9,22.5,29.78,North,0,0.0,0.0,80,2.59,,,1.38,WUHU216HW,2013-03-25 11:44:00,
2013-03-25 06:45:00,27.9,22.5,29.78,North,0,0.0,0.0,80,2.59,,,1.38,WUHU216HW,2013-03-25 11:45:00,
2013-03-25 06:47:00,27.9,22.5,29.78,North,0,0.0,0.0,80,2.59,,,1.38,WUHU216HW,2013-03-25 11:47:00,
2013-03-25 06:49:00,27.7,22.3,29.78,North,0,0.0,0.0,80,2.59,,,1.38,WUHU216HW,2013-03-25 11:49:00,
2013-03-25 06:50:00,27.7,22.3,29.78,North,0,0.0,0.0,80,2.59,,,1.38,WUHU216HW,2013-03-25 11:50:00,
2013-03-25 06:53:00,27.9,22.5,29.78,North,0,0.0,0.0,80,2.59,,,1.38,WUHU216HW,2013-03-25 11:53:00,
2013-03-25 06:54:00,27.9,22.5,29.78,North,0,0.0,0.0,80,2.59,,,1.38,WUHU216HW,2013-03-25 11:54:00,
2013-03-25 06:55:00,27.9,22.5,29.79,North,0,0.0,0.0,80,2.59,,,1.38,WUHU216HW,2013-03-25 11:55:00,
2013-03-25 06:58:00,28.1,22.7,29.79,North,0,0.0,0.0,80,2.59,,,1.38,WUHU216HW,2013-03-25 11:58:00,
2013-03-25 06:59:00,28.1,22.7,29.79,North,0,0.0,0.0,80,2.59,,,1.38,WUHU216HW,2013-03-25 11:59:00,
2013-03-25 07:00:00,28.1,22.7,29.79,North,0,0.0,0.0,80,0.00,,,1.38,WUHU216HW,2013-03-25 12:00:00,
2013-03-25 07:03:00,28.1,22.7,29.79,North,0,0.0,0.0,80,2.59,,,1.55,WUHU216HW,2013-03-25 12:03:00,
2013-03-25 07:04:00,28.1,22.7,29.79,North,0,0.0,0.0,80,2.59,,,1.55,WUHU216HW,2013-03-25 12:04:00,
2013-03-25 07:05:00,28.1,23.0,29.79,North,0,0.0,0.0,81,2.59,,,1.55,WUHU216HW,2013-03-25 12:05:00,
2013-03-25 07:09:00,27.9,22.5,29.79,North,0,0.0,0.0,80,2.59,,,1.55,WUHU216HW,2013-03-25 12:09:00,
2013-03-25 07:10:00,27.9,22.5,29.79,North,0,0.0,0.0,80,2.59,,,1.55,WUHU216HW,2013-03-25 12:10:00,
2013-03-25 07:14:00,27.7,22.6,29.79,North,0,0.0,0.0,81,2.59,,,1.55,WUHU216HW,2013-03-25 12:14:00,
2013-03-25 07:15:00,27.7,22.6,29.79,North,0,0.0,0.0,81,2.59,,,1.55,WUHU216HW,2013-03-25 12:15:00,
2013-03-25 07:19:00,27.7,22.6,29.80,North,0,0.0,0.0,81,2.59,,,1.55,WUHU216HW,2013-03-25 12:19:00,
2013-03-25 07:20:00,27.7,22.6,29.80,North,0,0.0,0.0,81,2.59,,,1.55,WUHU216HW,2013-03-25 12:20:00,
2013-03-25 07:21:00,27.7,22.6,29.80,North,0,0.0,0.0,81,2.59,,,1.55,WUHU216HW,2013-03-25 12:21:00,
2013-03-25 07:24:00,27.7,22.6,29.80,North,0,0.0,0.0,81,2.59,,,1.55,WUHU216HW,2013-03-25 12:24:00,
2013-03-25 07:26:00,27.7,22.6,29.80,North,0,0.0,0.0,81,2.59,,,1.55,WUHU216HW,2013-03-25 12:26:00,
2013-03-25 07:29:00,27.7,22.9,29.80,North,0,0.0,0.0,82,2.59,,,1.55,WUHU216HW,2013-03-25 12:29:00,
2013-03-25 07:31:00,27.5,22.7,29.80,North,0,0.0,0.0,82,2.59,,,1.55,WUHU216HW,2013-03-25 12:31:00,
2013-03-25 07:34:00,27.7,22.9,29.80,North,0,0.0,0.0,82,2.59,,,1.55,WUHU216HW,2013-03-25 12:34:00,
2013-03-25 07:37:00,27.7,22.9,29.80,North,0,0.0,0.0,82,2.59,,,1.55,WUHU216HW,2013-03-25 12:37:00,
2013-03-25 07:39:00,27.7,22.9,29.81,North,0,0.0,0.0,82,2.59,,,1.55,WUHU216HW,2013-03-25 12:39:00,
2013-03-25 07:40:00,27.7,22.9,29.81,North,0,0.0,0.0,82,2.59,,,1.55,WUHU216HW,2013-03-25 12:40:00,
2013-03-25 07:42:00,27.7,22.9,29.81,North,0,0.0,0.0,82,2.59,,,1.55,WUHU216HW,2013-03-25 12:42:00,
2013-03-25 07:45:00,27.9,23.0,29.81,North,0,0.0,0.0,82,2.59,,,1.55,WUHU216HW,2013-03-25 12:45:00,
2013-03-25 07:47:00,27.9,23.0,29.81,North,0,0.0,0.0,82,2.59,,,1.55,WUHU216HW,2013-03-25 12:47:00,
2013-03-25 07:50:00,27.9,23.0,29.82,North,0,0.0,0.0,82,2.59,,,1.55,WUHU216HW,2013-03-25 12:50:00,
2013-03-25 07:51:00,27.9,23.0,29.82,North,0,0.0,0.0,82,2.59,,,1.55,WUHU216HW,2013-03-25 12:51:00,
2013-03-25 07:52:00,27.9,23.0,29.82,North,0,0.0,0.0,82,2.59,,,1.55,WUHU216HW,2013-03-25 12:52:00,
2013-03-25 07:55:00,28.1,23.2,29.82,North,0,0.0,0.0,82,2.59,,,1.55,WUHU216HW,2013-03-25 12:55:00,
2013-03-25 07:56:00,28.1,23.2,29.82,North,0,0.0,0.0,82,2.59,,,1.55,WUHU216HW,2013-03-25 12:56:00,
2013-03-25 07:57:00,28.1,23.2,29.82,North,0,0.0,0.0,82,2.59,,,1.55,WUHU216HW,2013-03-25 12:57:00,
2013-03-25 07:58:00,28.1,23.2,29.82,North,0,0.0,0.0,82,2.59,,,1.55,WUHU216HW,2013-03-25 12:58:00,
2013-03-25 08:01:00,28.3,23.4,29.82,North,0,0.0,0.0,82,0.00,,,1.55,WUHU216HW,2013-03-25 13:01:00,
2013-03-25 08:02:00,28.1,23.2,29.82,North,0,0.0,0.0,82,0.00,,,1.72,WUHU216HW,2013-03-25 13:02:00,
2013-03-25 08:03:00,28.1,23.2,29.82,North,0,0.0,0.0,82,0.00,,,1.72,WUHU216HW,2013-03-25 13:03:00,
2013-03-25 08:07:00,28.3,23.4,29.82,North,0,0.0,0.0,82,0.00,,,1.72,WUHU216HW,2013-03-25 13:07:00,
2013-03-25 08:08:00,28.3,23.4,29.82,North,0,0.0,0.0,82,0.00,,,1.72,WUHU216HW,2013-03-25 13:08:00,
2013-03-25 08:12:00,28.4,23.6,29.82,North,0,0.0,0.0,82,0.00,,,1.72,WUHU216HW,2013-03-25 13:12:00,
2013-03-25 08:13:00,28.4,23.6,29.82,North,0,0.0,0.0,82,0.00,,,1.72,WUHU216HW,2013-03-25 13:13:00,
2013-03-25 08:17:00,28.4,23.3,29.83,North,0,0.0,0.0,81,0.00,,,1.72,WUHU216HW,2013-03-25 13:17:00,
2013-03-25 08:18:00,28.4,23.6,29.83,North,0,0.0,0.0,82,0.00,,,1.72,WUHU216HW,2013-03-25 13:18:00,
2013-03-25 08:22:00,28.4,23.6,29.83,North,0,0.0,0.0,82,0.00,,,1.72,WUHU216HW,2013-03-25 13:22:00,
2013-03-25 08:23:00,28.4,23.6,29.83,North,0,0.0,0.0,82,0.00,,,1.72,WUHU216HW,2013-03-25 13:23:00,
2013-03-25 08:27:00,28.6,23.5,29.83,North,0,0.0,0.0,81,0.00,,,1.72,WUHU216HW,2013-03-25 13:27:00,
2013-03-25 08:28:00,28.6,23.5,29.83,North,0,0.0,0.0,81,0.00,,,1.72,WUHU216HW,2013-03-25 13:28:00,
2013-03-25 08:33:00,28.6,23.5,29.83,North,0,0.0,0.0,81,0.00,,,1.72,WUHU216HW,2013-03-25 13:33:00,
2013-03-25 08:38:00,28.8,23.9,29.83,North,0,0.0,0.0,82,0.00,,,1.72,WUHU216HW,2013-03-25 13:38:00,
2013-03-25 08:43:00,29.0,24.1,29.84,North,0,0.0,0.0,82,0.00,,,1.72,WUHU216HW,2013-03-25 13:43:00,
2013-03-25 08:44:00,29.0,24.1,29.84,North,0,0.0,0.0,82,0.00,,,1.72,WUHU216HW,2013-03-25 13:44:00,
2013-03-25 08:48:00,29.2,24.3,29.84,North,0,0.0,0.0,82,0.00,,,1.72,WUHU216HW,2013-03-25 13:48:00,
2013-03-25 08:49:00,29.2,24.3,29.84,North,0,0.0,0.0,82,0.00,,,1.72,WUHU216HW,2013-03-25 13:49:00,
2013-03-25 08:53:00,29.3,24.2,29.84,North,0,0.0,0.0,81,0.00,,,1.72,WUHU216HW,2013-03-25 13:53:00,
2013-03-25 08:54:00,29.5,24.4,29.84,North,0,0.0,0.0,81,0.00,,,1.72,WUHU216HW,2013-03-25 13:54:00,
2013-03-25 08:58:00,29.3,24.2,29.84,North,0,0.0,0.0,81,0.00,,,1.72,WUHU216HW,2013-03-25 13:58:00,
2013-03-25 08:59:00,29.3,24.2,29.84,North,0,0.0,0.0,81,0.00,,,1.72,WUHU216HW,2013-03-25 13:59:00,
2013-03-25 09:03:00,29.3,24.2,29.84,North,0,0.0,0.0,81,0.00,,,1.89,WUHU216HW,2013-03-25 14:03:00,
2013-03-25 09:04:00,29.5,24.4,29.84,North,0,0.0,0.0,81,0.00,,,1.89,WUHU216HW,2013-03-25 14:04:00,
2013-03-25 09:08:00,29.5,24.1,29.84,North,0,0.0,0.0,80,0.00,,,1.89,WUHU216HW,2013-03-25 14:08:00,
2013-03-25 09:09:00,29.5,24.1,29.84,North,0,0.0,0.0,80,0.00,,,1.89,WUHU216HW,2013-03-25 14:09:00,
2013-03-25 09:13:00,29.7,24.3,29.84,North,0,0.0,0.0,80,2.59,,,1.89,WUHU216HW,2013-03-25 14:13:00,
2013-03-25 09:14:00,29.7,24.3,29.84,North,0,0.0,0.0,80,2.59,,,1.89,WUHU216HW,2013-03-25 14:14:00,
2013-03-25 09:18:00,29.7,24.3,29.84,North,0,0.0,0.0,80,2.59,,,1.89,WUHU216HW,2013-03-25 14:18:00,
2013-03-25 09:19:00,29.7,24.3,29.84,North,0,0.0,0.0,80,2.59,,,1.89,WUHU216HW,2013-03-25 14:19:00,
2013-03-25 09:20:00,29.7,24.3,29.84,North,0,0.0,0.0,80,2.59,,,1.89,WUHU216HW,2013-03-25 14:20:00,
2013-03-25 09:23:00,29.9,24.5,29.85,North,0,0.0,0.0,80,2.59,,,1.89,WUHU216HW,2013-03-25 14:23:00,
2013-03-25 09:25:00,29.9,24.5,29.85,North,0,0.0,0.0,80,2.59,,,1.89,WUHU216HW,2013-03-25 14:25:00,
2013-03-25 09:29:00,30.1,24.3,29.85,North,0,0.0,0.0,79,2.59,,,1.89,WUHU216HW,2013-03-25 14:29:00,
2013-03-25 09:30:00,30.1,24.3,29.85,North,0,0.0,0.0,79,2.59,,,1.89,WUHU216HW,2013-03-25 14:30:00,
2013-03-25 09:34:00,30.2,24.5,29.85,North,0,0.0,0.0,79,2.59,,,1.89,WUHU216HW,2013-03-25 14:34:00,
2013-03-25 09:35:00,30.2,24.5,29.85,North,0,0.0,0.0,79,2.59,,,1.89,WUHU216HW,2013-03-25 14:35:00,
2013-03-25 09:39:00,30.4,24.7,29.86,North,0,0.0,0.0,79,2.59,,,1.89,WUHU216HW,2013-03-25 14:39:00,
2013-03-25 09:40:00,30.4,24.7,29.86,North,0,0.0,0.0,79,2.59,,,1.89,WUHU216HW,2013-03-25 14:40:00,
2013-03-25 09:45:00,30.4,24.7,29.86,North,0,0.0,0.0,79,2.59,,,1.89,WUHU216HW,2013-03-25 14:45:00,
2013-03-25 09:46:00,30.4,24.7,29.86,North,0,0.0,0.0,79,2.59,,,1.89,WUHU216HW,2013-03-25 14:46:00,
2013-03-25 09:50:00,30.6,24.8,29.86,North,0,0.0,0.0,79,2.59,,,1.89,WUHU216HW,2013-03-25 14:50:00,
2013-03-25 09:51:00,30.4,24.7,29.86,North,0,0.0,0.0,79,2.59,,,1.89,WUHU216HW,2013-03-25 14:51:00,
2013-03-25 09:52:00,30.6,24.8,29.86,North,0,0.0,0.0,79,2.59,,,1.89,WUHU216HW,2013-03-25 14:52:00,
2013-03-25 09:55:00,30.6,24.8,29.86,North,0,0.0,0.0,79,2.59,,,1.89,WUHU216HW,2013-03-25 14:55:00,
2013-03-25 09:57:00,30.4,24.7,29.86,North,0,0.0,0.0,79,2.59,,,1.89,WUHU216HW,2013-03-25 14:57:00,
2013-03-25 10:00:00,30.4,24.7,29.86,North,0,0.0,0.0,79,2.59,,,1.89,WUHU216HW,2013-03-25 15:00:00,
2013-03-25 10:02:00,30.6,24.8,29.86,North,0,0.0,0.0,79,2.59,,,2.07,WUHU216HW,2013-03-25 15:02:00,
2013-03-25 10:05:00,30.6,24.8,29.87,North,0,0.0,0.0,79,2.59,,,2.07,WUHU216HW,2013-03-25 15:05:00,
2013-03-25 10:07:00,30.6,24.8,29.86,North,0,0.0,0.0,79,2.59,,,2.07,WUHU216HW,2013-03-25 15:07:00,
2013-03-25 10:08:00,30.6,24.8,29.87,North,0,0.0,0.0,79,2.59,,,2.07,WUHU216HW,2013-03-25 15:08:00,
2013-03-25 10:10:00,30.6,24.8,29.87,North,0,0.0,0.0,79,2.59,,,2.07,WUHU216HW,2013-03-25 15:10:00,
2013-03-25 10:12:00,30.8,25.0,29.87,North,0,0.0,0.0,79,2.59,,,2.07,WUHU216HW,2013-03-25 15:12:00,
2013-03-25 10:13:00,30.8,25.0,29.87,North,0,0.0,0.0,79,2.59,,,2.07,WUHU216HW,2013-03-25 15:13:00,
2013-03-25 10:15:00,31.0,25.2,29.87,North,0,0.0,0.0,79,2.59,,,2.07,WUHU216HW,2013-03-25 15:15:00,
2013-03-25 10:16:00,31.0,25.2,29.87,North,0,0.0,0.0,79,2.59,,,2.07,WUHU216HW,2013-03-25 15:16:00,
2013-03-25 10:17:00,31.1,25.4,29.87,North,0,0.0,0.0,79,2.59,,,2.07,WUHU216HW,2013-03-25 15:17:00,
2013-03-25 10:18:00,31.1,25.4,29.87,North,0,0.0,0.0,79,2.59,,,2.07,WUHU216HW,2013-03-25 15:18:00,
2013-03-25 10:20:00,31.1,25.4,29.87,North,0,0.0,0.0,79,2.59,,,2.07,WUHU216HW,2013-03-25 15:20:00,
2013-03-25 10:21:00,31.1,25.4,29.87,North,0,0.0,0.0,79,2.59,,,2.07,WUHU216HW,2013-03-25 15:21:00,
2013-03-25 10:23:00,31.1,25.4,29.87,North,0,0.0,0.0,79,2.59,,,2.07,WUHU216HW,2013-03-25 15:23:00,
2013-03-25 10:25:00,31.3,25.6,29.87,North,0,0.0,0.0,79,2.59,,,2.07,WUHU216HW,2013-03-25 15:25:00,
2013-03-25 10:27:00,31.3,25.6,29.87,North,0,0.0,0.0,79,2.59,,,2.07,WUHU216HW,2013-03-25 15:27:00,
2013-03-25 10:28:00,31.5,25.7,29.87,North,0,0.0,0.0,79,2.59,,,2.07,WUHU216HW,2013-03-25 15:28:00,
2013-03-25 10:29:00,31.5,25.5,29.87,North,0,0.0,0.0,78,2.59,,,2.07,WUHU216HW,2013-03-25 15:29:00,
2013-03-25 10:30:00,31.7,25.7,29.87,North,0,0.0,0.0,78,2.59,,,2.07,WUHU216HW,2013-03-25 15:30:00,
2013-03-25 10:32:00,31.7,25.7,29.87,North,0,0.0,0.0,78,2.59,,,2.07,WUHU216HW,2013-03-25 15:32:00,
2013-03-25 10:33:00,31.7,25.7,29.87,North,0,0.0,0.0,78,2.59,,,2.07,WUHU216HW,2013-03-25 15:33:00,
2013-03-25 10:34:00,31.9,25.8,29.87,North,0,0.0,0.0,78,2.59,,,2.07,WUHU216HW,2013-03-25 15:34:00,
2013-03-25 10:35:00,31.9,25.8,29.87,North,0,0.0,0.0,78,2.59,,,2.07,WUHU216HW,2013-03-25 15:35:00,
2013-03-25 10:37:00,31.9,25.8,29.87,North,0,0.0,0.0,78,2.59,,,2.07,WUHU216HW,2013-03-25 15:37:00,
2013-03-25 10:38:00,32.0,26.0,29.87,North,0,0.0,0.0,78,2.59,,,2.07,WUHU216HW,2013-03-25 15:38:00,
2013-03-25 10:39:00,32.0,26.3,29.87,North,0,0.0,0.0,79,2.59,,,2.07,WUHU216HW,2013-03-25 15:39:00,
2013-03-25 10:42:00,32.4,26.3,29.88,North,0,0.0,0.0,78,2.59,,,2.07,WUHU216HW,2013-03-25 15:42:00,
2013-03-25 10:43:00,32.4,26.3,29.87,North,0,0.0,0.0,78,2.59,,,2.07,WUHU216HW,2013-03-25 15:43:00,
2013-03-25 10:44:00,32.6,26.5,29.88,North,0,0.0,0.0,78,2.59,,,2.07,WUHU216HW,2013-03-25 15:44:00,
2013-03-25 10:47:00,32.6,26.2,29.88,North,0,0.0,0.0,77,2.59,,,2.07,WUHU216HW,2013-03-25 15:47:00,
2013-03-25 10:48:00,32.6,26.2,29.88,North,0,0.0,0.0,77,2.59,,,2.07,WUHU216HW,2013-03-25 15:48:00,
2013-03-25 10:49:00,32.8,26.3,29.88,North,0,0.0,0.0,77,2.59,,,2.07,WUHU216HW,2013-03-25 15:49:00,
2013-03-25 10:52:00,32.8,26.3,29.88,North,0,0.0,0.0,77,2.59,,,2.07,WUHU216HW,2013-03-25 15:52:00,
2013-03-25 10:53:00,32.9,26.5,29.88,North,0,0.0,0.0,77,2.59,,,2.07,WUHU216HW,2013-03-25 15:53:00,
2013-03-25 10:54:00,32.9,26.5,29.88,North,0,0.0,0.0,77,2.59,,,2.07,WUHU216HW,2013-03-25 15:54:00,
2013-03-25 10:57:00,33.1,26.3,29.88,North,0,0.0,0.0,76,2.59,,,2.07,WUHU216HW,2013-03-25 15:57:00,
2013-03-25 10:58:00,33.1,26.3,29.88,North,0,0.0,0.0,76,2.59,,,2.07,WUHU216HW,2013-03-25 15:58:00,
2013-03-25 10:59:00,33.1,26.3,29.88,North,0,0.0,0.0,76,2.59,,,2.07,WUHU216HW,2013-03-25 15:59:00,
2013-03-25 11:02:00,33.3,26.5,29.88,North,0,0.0,0.0,76,2.59,,,2.24,WUHU216HW,2013-03-25 16:02:00,
2013-03-25 11:03:00,33.3,26.5,29.89,North,0,0.0,0.0,76,2.59,,,2.24,WUHU216HW,2013-03-25 16:03:00,
2013-03-25 11:04:00,33.3,26.5,29.89,North,0,0.0,0.0,76,2.59,,,2.24,WUHU216HW,2013-03-25 16:04:00,
2013-03-25 11:07:00,33.1,26.3,29.89,North,0,0.0,0.0,76,2.59,,,2.24,WUHU216HW,2013-03-25 16:07:00,
2013-03-25 11:08:00,33.1,26.3,29.89,North,0,0.0,0.0,76,2.59,,,2.24,WUHU216HW,2013-03-25 16:08:00,
2013-03-25 11:09:00,33.1,26.3,29.89,North,0,0.0,0.0,76,2.59,,,2.24,WUHU216HW,2013-03-25 16:09:00,
2013-03-25 11:12:00,32.9,26.2,29.89,North,0,0.0,0.0,76,2.59,,,2.24,WUHU216HW,2013-03-25 16:12:00,
2013-03-25 11:13:00,32.9,26.2,29.89,North,0,0.0,0.0,76,2.59,,,2.24,WUHU216HW,2013-03-25 16:13:00,
2013-03-25 11:14:00,32.8,26.0,29.89,North,0,0.0,0.0,76,2.59,,,2.24,WUHU216HW,2013-03-25 16:14:00,
2013-03-25 11:17:00,32.8,26.0,29.90,North,0,0.0,0.0,76,2.59,,,2.24,WUHU216HW,2013-03-25 16:17:00,
2013-03-25 11:18:00,32.8,26.0,29.89,North,0,0.0,0.0,76,2.59,,,2.24,WUHU216HW,2013-03-25 16:18:00,
2013-03-25 11:19:00,32.8,26.0,29.89,North,0,0.0,0.0,76,2.59,,,2.24,WUHU216HW,2013-03-25 16:19:00,
2013-03-25 11:23:00,32.8,26.3,29.90,North,0,0.0,0.0,77,2.59,,,2.24,WUHU216HW,2013-03-25 16:23:00,
2013-03-25 11:24:00,32.8,26.3,29.90,North,0,0.0,0.0,77,2.59,,,2.24,WUHU216HW,2013-03-25 16:24:00,
2013-03-25 11:25:00,32.8,26.3,29.90,North,0,0.0,0.0,77,2.59,,,2.24,WUHU216HW,2013-03-25 16:25:00,
2013-03-25 11:28:00,32.8,26.6,29.90,North,0,0.0,0.0,78,2.59,,,2.24,WUHU216HW,2013-03-25 16:28:00,
2013-03-25 11:32:00,32.8,26.6,29.90,North,0,0.0,0.0,78,2.59,,,2.24,WUHU216HW,2013-03-25 16:32:00,
2013-03-25 11:33:00,32.8,26.6,29.90,North,0,0.0,0.0,78,2.59,,,2.24,WUHU216HW,2013-03-25 16:33:00,
2013-03-25 11:34:00,32.8,26.6,29.90,North,0,0.0,0.0,78,2.59,,,2.24,WUHU216HW,2013-03-25 16:34:00,
2013-03-25 11:37:00,32.8,26.6,29.90,North,0,0.0,0.0,78,2.59,,,2.24,WUHU216HW,2013-03-25 16:37:00,
2013-03-25 11:38:00,32.8,26.3,29.90,North,0,0.0,0.0,77,2.59,,,2.24,WUHU216HW,2013-03-25 16:38:00,
2013-03-25 11:39:00,32.8,26.3,29.90,North,0,0.0,0.0,77,2.59,,,2.24,WUHU216HW,2013-03-25 16:39:00,
2013-03-25 11:42:00,32.8,26.3,29.90,North,0,0.0,0.0,77,2.59,,,2.24,WUHU216HW,2013-03-25 16:42:00,
2013-03-25 11:43:00,32.8,26.0,29.90,North,0,0.0,0.0,76,2.59,,,2.24,WUHU216HW,2013-03-25 16:43:00,
2013-03-25 11:45:00,32.9,26.2,29.90,North,0,0.0,0.0,76,2.59,,,2.24,WUHU216HW,2013-03-25 16:45:00,
2013-03-25 11:47:00,32.9,26.2,29.90,North,0,0.0,0.0,76,2.59,,,2.24,WUHU216HW,2013-03-25 16:47:00,
2013-03-25 11:49:00,33.1,26.3,29.90,North,0,0.0,0.0,76,2.59,,,2.24,WUHU216HW,2013-03-25 16:49:00,
2013-03-25 11:50:00,33.1,26.3,29.90,North,0,0.0,0.0,76,2.59,,,2.24,WUHU216HW,2013-03-25 16:50:00,
2013-03-25 11:52:00,33.3,26.5,29.90,North,0,0.0,0.0,76,2.59,,,2.24,WUHU216HW,2013-03-25 16:52:00,
2013-03-25 11:53:00,33.3,26.5,29.90,North,0,0.0,0.0,76,2.59,,,2.24,WUHU216HW,2013-03-25 16:53:00,
2013-03-25 11:54:00,33.5,26.6,29.90,North,0,0.0,0.0,76,2.59,,,2.24,WUHU216HW,2013-03-25 16:54:00,
2013-03-25 11:55:00,33.7,26.8,29.90,North,0,0.0,0.0,76,2.59,,,2.24,WUHU216HW,2013-03-25 16:55:00,
2013-03-25 11:58:00,33.8,26.6,29.90,North,0,0.0,0.0,75,2.59,,,2.24,WUHU216HW,2013-03-25 16:58:00,
2013-03-25 11:59:00,33.8,26.6,29.90,North,0,0.0,0.0,75,2.59,,,2.24,WUHU216HW,2013-03-25 16:59:00,
2013-03-25 12:00:00,34.0,26.8,29.90,North,0,0.0,0.0,75,0.00,,,2.24,WUHU216HW,2013-03-25 17:00:00,
2013-03-25 12:03:00,34.2,27.0,29.90,North,0,0.0,0.0,75,2.59,,,2.41,WUHU216HW,2013-03-25 17:03:00,
2013-03-25 12:04:00,34.6,27.4,29.90,North,0,0.0,0.0,75,2.59,,,2.41,WUHU216HW,2013-03-25 17:04:00,
2013-03-25 12:06:00,34.6,27.4,29.90,North,0,0.0,0.0,75,2.59,,,2.41,WUHU216HW,2013-03-25 17:06:00,
2013-03-25 12:08:00,34.9,27.4,29.90,North,0,0.0,0.0,74,2.59,,,2.41,WUHU216HW,2013-03-25 17:08:00,
2013-03-25 12:09:00,34.9,27.1,29.90,North,0,0.0,0.0,73,2.59,,,2.41,WUHU216HW,2013-03-25 17:09:00,
2013-03-25 12:11:00,34.9,27.1,29.90,North,0,0.0,0.0,73,2.59,,,2.41,WUHU216HW,2013-03-25 17:11:00,
2013-03-25 12:13:00,34.9,27.1,29.90,North,0,0.0,0.0,73,2.59,,,2.41,WUHU216HW,2013-03-25 17:13:00,
2013-03-25 12:14:00,34.9,27.1,29.90,North,0,0.0,0.0,73,2.59,,,2.41,WUHU216HW,2013-03-25 17:14:00,
2013-03-25 12:17:00,34.7,26.9,29.90,North,0,0.0,0.0,73,2.59,,,2.41,WUHU216HW,2013-03-25 17:17:00,
2013-03-25 12:18:00,34.7,26.9,29.90,North,0,0.0,0.0,73,2.59,,,2.41,WUHU216HW,2013-03-25 17:18:00,
2013-03-25 12:19:00,34.7,26.9,29.90,North,0,0.0,0.0,73,2.59,,,2.41,WUHU216HW,2013-03-25 17:19:00,
2013-03-25 12:22:00,34.9,27.1,29.90,North,0,0.0,0.0,73,2.59,,,2.41,WUHU216HW,2013-03-25 17:22:00,
2013-03-25 12:23:00,34.9,27.1,29.90,North,0,0.0,0.0,73,2.59,,,2.41,WUHU216HW,2013-03-25 17:23:00,
2013-03-25 12:24:00,34.9,27.1,29.90,North,0,0.0,0.0,73,2.59,,,2.41,WUHU216HW,2013-03-25 17:24:00,
2013-03-25 12:27:00,34.9,27.1,29.90,North,0,0.0,0.0,73,2.59,,,2.41,WUHU216HW,2013-03-25 17:27:00,
2013-03-25 12:28:00,34.9,27.1,29.90,North,0,0.0,0.0,73,2.59,,,2.41,WUHU216HW,2013-03-25 17:28:00,
2013-03-25 12:29:00,34.9,27.1,29.90,North,0,0.0,0.0,73,2.59,,,2.41,WUHU216HW,2013-03-25 17:29:00,
2013-03-25 12:33:00,35.3,27.5,29.90,North,0,0.0,0.0,73,2.59,,,2.41,WUHU216HW,2013-03-25 17:33:00,
2013-03-25 12:34:00,35.3,26.8,29.90,North,0,0.0,0.0,71,2.59,,,2.41,WUHU216HW,2013-03-25 17:34:00,
2013-03-25 12:38:00,35.3,27.1,29.90,North,0,0.0,0.0,72,2.59,,,2.41,WUHU216HW,2013-03-25 17:38:00,
2013-03-25 12:39:00,35.5,27.3,29.90,North,0,0.0,0.0,72,2.59,,,2.41,WUHU216HW,2013-03-25 17:39:00,
2013-03-25 12:40:00,35.5,27.3,29.90,North,0,0.0,0.0,72,2.59,,,2.41,WUHU216HW,2013-03-25 17:40:00,
2013-03-25 12:43:00,35.5,27.3,29.90,North,0,0.0,0.0,72,2.59,,,2.41,WUHU216HW,2013-03-25 17:43:00,
2013-03-25 12:44:00,35.5,27.0,29.90,North,0,0.0,0.0,71,2.59,,,2.41,WUHU216HW,2013-03-25 17:44:00,
2013-03-25 12:45:00,35.6,27.2,29.90,North,0,0.0,0.0,71,2.59,,,2.41,WUHU216HW,2013-03-25 17:45:00,
2013-03-25 12:48:00,35.6,27.2,29.90,North,0,0.0,0.0,71,2.59,,,2.41,WUHU216HW,2013-03-25 17:48:00,
2013-03-25 12:49:00,35.6,27.2,29.90,North,0,0.0,0.0,71,2.59,,,2.41,WUHU216HW,2013-03-25 17:49:00,
2013-03-25 12:50:00,35.6,27.2,29.90,North,0,0.0,0.0,71,2.59,,,2.41,WUHU216HW,2013-03-25 17:50:00,
2013-03-25 12:53:00,35.5,27.0,29.90,North,0,0.0,0.0,71,2.59,,,2.41,WUHU216HW,2013-03-25 17:53:00,
2013-03-25 12:54:00,35.5,27.0,29.90,North,0,0.0,0.0,71,2.59,,,2.41,WUHU216HW,2013-03-25 17:54:00,
2013-03-25 12:55:00,35.3,26.8,29.90,North,0,0.0,0.0,71,2.59,,,2.41,WUHU216HW,2013-03-25 17:55:00,
2013-03-25 12:58:00,35.3,26.5,29.90,North,0,0.0,0.0,70,2.59,,,2.41,WUHU216HW,2013-03-25 17:58:00,
2013-03-25 12:59:00,35.3,26.5,29.90,North,0,0.0,0.0,70,2.59,,,2.41,WUHU216HW,2013-03-25 17:59:00,
2013-03-25 13:00:00,35.1,26.7,29.90,North,0,0.0,0.0,71,0.00,,,2.41,WUHU216HW,2013-03-25 18:00:00,
2013-03-25 13:03:00,35.1,26.7,29.90,North,0,0.0,0.0,71,2.59,,,2.59,WUHU216HW,2013-03-25 18:03:00,
2013-03-25 13:04:00,35.1,26.7,29.90,North,0,0.0,0.0,71,2.59,,,2.59,WUHU216HW,2013-03-25 18:04:00,
2013-03-25 13:05:00,35.1,26.7,29.90,North,0,0.0,0.0,71,2.59,,,2.59,WUHU216HW,2013-03-25 18:05:00,
2013-03-25 13:08:00,34.9,26.5,29.90,North,0,0.0,0.0,71,2.59,,,2.59,WUHU216HW,2013-03-25 18:08:00,
2013-03-25 13:09:00,34.9,26.5,29.90,North,0,0.0,0.0,71,2.59,,,2.59,WUHU216HW,2013-03-25 18:09:00,
2013-03-25 13:10:00,34.9,26.5,29.90,North,0,0.0,0.0,71,2.59,,,2.59,WUHU216HW,2013-03-25 18:10:00,
2013-03-25 13:14:00,34.9,26.5,29.90,North,0,0.0,0.0,71,2.59,,,2.59,WUHU216HW,2013-03-25 18:14:00,
2013-03-25 13:15:00,34.9,26.5,29.90,North,0,0.0,0.0,71,2.59,,,2.59,WUHU216HW,2013-03-25 18:15:00,
2013-03-25 13:19:00,34.9,26.5,29.90,North,0,0.0,0.0,71,2.59,,,2.59,WUHU216HW,2013-03-25 18:19:00,
2013-03-25 13:20:00,34.9,26.5,29.90,North,0,0.0,0.0,71,2.59,,,2.59,WUHU216HW,2013-03-25 18:20:00,
2013-03-25 13:24:00,34.9,26.5,29.90,North,0,0.0,0.0,71,2.59,,,2.59,WUHU216HW,2013-03-25 18:24:00,
2013-03-25 13:25:00,34.9,26.5,29.90,North,0,0.0,0.0,71,2.59,,,2.59,WUHU216HW,2013-03-25 18:25:00,
2013-03-25 13:29:00,34.7,26.3,29.90,North,0,0.0,0.0,71,2.59,,,2.59,WUHU216HW,2013-03-25 18:29:00,
2013-03-25 13:30:00,34.6,26.1,29.90,North,0,0.0,0.0,71,2.59,,,2.59,WUHU216HW,2013-03-25 18:30:00,
2013-03-25 13:31:00,34.6,26.1,29.90,North,0,0.0,0.0,71,2.59,,,2.59,WUHU216HW,2013-03-25 18:31:00,
2013-03-25 13:34:00,34.4,25.9,29.90,North,0,0.0,0.0,71,2.59,,,2.59,WUHU216HW,2013-03-25 18:34:00,
2013-03-25 13:35:00,34.6,26.1,29.90,North,0,0.0,0.0,71,2.59,,,2.59,WUHU216HW,2013-03-25 18:35:00,
2013-03-25 13:36:00,34.6,26.1,29.90,North,0,0.0,0.0,71,2.59,,,2.59,WUHU216HW,2013-03-25 18:36:00,
2013-03-25 13:39:00,34.6,26.1,29.90,North,0,0.0,0.0,71,2.59,,,2.59,WUHU216HW,2013-03-25 18:39:00,
2013-03-25 13:40:00,34.7,26.3,29.90,North,0,0.0,0.0,71,2.59,,,2.59,WUHU216HW,2013-03-25 18:40:00,
2013-03-25 13:41:00,34.7,26.3,29.90,North,0,0.0,0.0,71,2.59,,,2.59,WUHU216HW,2013-03-25 18:41:00,
2013-03-25 13:44:00,34.9,26.5,29.90,North,0,0.0,0.0,71,2.59,,,2.59,WUHU216HW,2013-03-25 18:44:00,
2013-03-25 13:45:00,34.9,26.5,29.90,North,0,0.0,0.0,71,2.59,,,2.59,WUHU216HW,2013-03-25 18:45:00,
2013-03-25 13:47:00,34.9,26.1,29.90,North,0,0.0,0.0,70,2.59,,,2.59,WUHU216HW,2013-03-25 18:47:00,
2013-03-25 13:49:00,34.9,26.1,29.91,North,0,0.0,0.0,70,2.59,,,2.59,WUHU216HW,2013-03-25 18:49:00,
2013-03-25 13:50:00,34.9,26.1,29.90,North,0,0.0,0.0,70,2.59,,,2.59,WUHU216HW,2013-03-25 18:50:00,
2013-03-25 13:52:00,34.7,26.3,29.90,North,0,0.0,0.0,71,2.59,,,2.59,WUHU216HW,2013-03-25 18:52:00,
2013-03-25 13:54:00,34.7,26.3,29.91,North,0,0.0,0.0,71,2.59,,,2.59,WUHU216HW,2013-03-25 18:54:00,
2013-03-25 13:55:00,34.7,26.3,29.90,North,0,0.0,0.0,71,2.59,,,2.59,WUHU216HW,2013-03-25 18:55:00,
2013-03-25 13:57:00,34.7,25.9,29.90,North,0,0.0,0.0,70,2.59,,,2.59,WUHU216HW,2013-03-25 18:57:00,
2013-03-25 13:58:00,34.7,25.9,29.90,North,0,0.0,0.0,70,2.59,,,2.59,WUHU216HW,2013-03-25 18:58:00,
2013-03-25 13:59:00,34.9,26.1,29.90,North,0,0.0,0.0,70,2.59,,,2.59,WUHU216HW,2013-03-25 18:59:00,
2013-03-25 14:00:00,34.9,26.1,29.90,North,0,0.0,0.0,70,0.00,,,2.59,WUHU216HW,2013-03-25 19:00:00,
2013-03-25 14:02:00,34.9,26.1,29.90,North,0,0.0,0.0,70,2.59,,,2.75,WUHU216HW,2013-03-25 19:02:00,
2013-03-25 14:03:00,35.1,26.3,29.90,North,0,0.0,0.0,70,2.59,,,2.75,WUHU216HW,2013-03-25 19:03:00,
2013-03-25 14:04:00,35.3,26.5,29.91,North,0,0.0,0.0,70,2.59,,,2.75,WUHU216HW,2013-03-25 19:04:00,
2013-03-25 14:05:00,35.5,26.6,29.91,North,0,0.0,0.0,70,2.59,,,2.75,WUHU216HW,2013-03-25 19:05:00,
2013-03-25 14:07:00,35.6,26.1,29.91,North,0,0.0,0.0,68,2.59,,,2.75,WUHU216HW,2013-03-25 19:07:00,
2013-03-25 14:08:00,35.6,26.1,29.91,North,0,0.0,0.0,68,2.59,,,2.75,WUHU216HW,2013-03-25 19:08:00,
2013-03-25 14:10:00,35.6,26.1,29.91,North,0,0.0,0.0,68,2.59,,,2.75,WUHU216HW,2013-03-25 19:10:00,
2013-03-25 14:12:00,35.8,26.3,29.91,North,0,0.0,0.0,68,2.59,,,2.75,WUHU216HW,2013-03-25 19:12:00,
2013-03-25 14:13:00,36.0,26.5,29.90,North,0,0.0,0.0,68,2.59,,,2.75,WUHU216HW,2013-03-25 19:13:00,
2013-03-25 14:15:00,36.0,26.5,29.91,North,0,0.0,0.0,68,2.59,,,2.75,WUHU216HW,2013-03-25 19:15:00,
2013-03-25 14:18:00,36.4,26.5,29.91,North,0,0.0,0.0,67,2.59,,,2.75,WUHU216HW,2013-03-25 19:18:00,
2013-03-25 14:19:00,36.4,26.5,29.91,North,0,0.0,0.0,67,2.59,,,2.75,WUHU216HW,2013-03-25 19:19:00,
2013-03-25 14:20:00,36.4,26.5,29.91,North,0,0.0,0.0,67,2.59,,,2.75,WUHU216HW,2013-03-25 19:20:00,
2013-03-25 14:21:00,36.4,26.5,29.91,North,0,0.0,0.0,67,2.59,,,2.75,WUHU216HW,2013-03-25 19:21:00,
2013-03-25 14:23:00,36.4,26.1,29.91,North,0,0.0,0.0,66,2.59,,,2.75,WUHU216HW,2013-03-25 19:23:00,
2013-03-25 14:24:00,36.2,25.9,29.91,North,0,0.0,0.0,66,2.59,,,2.75,WUHU216HW,2013-03-25 19:24:00,
2013-03-25 14:25:00,36.0,25.8,29.91,North,0,0.0,0.0,66,2.59,,,2.75,WUHU216HW,2013-03-25 19:25:00,
2013-03-25 14:27:00,35.8,25.6,29.91,North,0,0.0,0.0,66,2.59,,,2.75,WUHU216HW,2013-03-25 19:27:00,
2013-03-25 14:28:00,35.8,25.9,29.91,North,0,0.0,0.0,67,2.59,,,2.75,WUHU216HW,2013-03-25 19:28:00,
2013-03-25 14:29:00,35.8,25.9,29.91,North,0,0.0,0.0,67,2.59,,,2.75,WUHU216HW,2013-03-25 19:29:00,
2013-03-25 14:30:00,35.8,25.6,29.91,North,0,0.0,0.0,66,2.59,,,2.75,WUHU216HW,2013-03-25 19:30:00,
2013-03-25 14:32:00,35.8,25.9,29.91,North,0,0.0,0.0,67,2.59,,,2.75,WUHU216HW,2013-03-25 19:32:00,
2013-03-25 14:33:00,35.8,25.6,29.91,North,0,0.0,0.0,66,2.59,,,2.75,WUHU216HW,2013-03-25 19:33:00,
2013-03-25 14:34:00,35.8,25.6,29.91,North,0,0.0,0.0,66,2.59,,,2.75,WUHU216HW,2013-03-25 19:34:00,
2013-03-25 14:35:00,35.8,25.6,29.91,North,0,0.0,0.0,66,2.59,,,2.75,WUHU216HW,2013-03-25 19:35:00,
2013-03-25 14:37:00,35.8,25.6,29.91,North,0,0.0,0.0,66,2.59,,,2.75,WUHU216HW,2013-03-25 19:37:00,
2013-03-25 14:38:00,35.8,25.6,29.91,North,0,0.0,0.0,66,2.59,,,2.75,WUHU216HW,2013-03-25 19:38:00,
2013-03-25 14:39:00,35.8,25.6,29.91,North,0,0.0,0.0,66,2.59,,,2.75,WUHU216HW,2013-03-25 19:39:00,
2013-03-25 14:41:00,35.8,25.2,29.91,North,0,0.0,0.0,65,2.59,,,2.75,WUHU216HW,2013-03-25 19:41:00,
2013-03-25 14:42:00,35.8,25.2,29.91,North,0,0.0,0.0,65,2.59,,,2.75,WUHU216HW,2013-03-25 19:42:00,
2013-03-25 14:43:00,35.6,25.0,29.91,North,0,0.0,0.0,65,2.59,,,2.75,WUHU216HW,2013-03-25 19:43:00,
2013-03-25 14:44:00,35.6,25.0,29.92,North,0,0.0,0.0,65,2.59,,,2.75,WUHU216HW,2013-03-25 19:44:00,
2013-03-25 14:47:00,35.6,25.0,29.91,North,0,0.0,0.0,65,2.59,,,2.75,WUHU216HW,2013-03-25 19:47:00,
2013-03-25 14:49:00,35.6,25.0,29.91,North,0,0.0,0.0,65,2.59,,,2.75,WUHU216HW,2013-03-25 19:49:00,
2013-03-25 14:50:00,35.5,24.8,29.92,North,0,0.0,0.0,65,2.59,,,2.75,WUHU216HW,2013-03-25 19:50:00,
2013-03-25 14:52:00,35.5,24.8,29.92,North,0,0.0,0.0,65,2.59,,,2.75,WUHU216HW,2013-03-25 19:52:00,
2013-03-25 14:54:00,35.5,25.2,29.92,North,0,0.0,0.0,66,2.59,,,2.75,WUHU216HW,2013-03-25 19:54:00,
2013-03-25 14:55:00,35.5,24.8,29.92,North,0,0.0,0.0,65,2.59,,,2.75,WUHU216HW,2013-03-25 19:55:00,
2013-03-25 14:57:00,35.5,24.8,29.92,North,0,0.0,0.0,65,2.59,,,2.75,WUHU216HW,2013-03-25 19:57:00,
2013-03-25 14:58:00,35.5,24.8,29.92,North,0,0.0,0.0,65,2.59,,,2.75,WUHU216HW,2013-03-25 19:58:00,
2013-03-25 14:59:00,35.5,24.8,29.92,North,0,0.0,0.0,65,2.59,,,2.75,WUHU216HW,2013-03-25 19:59:00,
2013-03-25 15:00:00,35.5,24.8,29.92,North,0,0.0,0.0,65,0.00,,,2.75,WUHU216HW,2013-03-25 20:00:00,
2013-03-25 15:03:00,35.3,24.7,29.92,North,0,0.0,0.0,65,2.59,,,2.93,WUHU216HW,2013-03-25 20:03:00,
2013-03-25 15:04:00,35.3,24.7,29.92,North,0,0.0,0.0,65,2.59,,,2.93,WUHU216HW,2013-03-25 20:04:00,
2013-03-25 15:05:00,35.1,24.5,29.92,North,0,0.0,0.0,65,2.59,,,2.93,WUHU216HW,2013-03-25 20:05:00,
2013-03-25 15:08:00,35.1,24.5,29.92,North,0,0.0,0.0,65,2.59,,,2.93,WUHU216HW,2013-03-25 20:08:00,
2013-03-25 15:09:00,34.9,24.3,29.92,North,0,0.0,0.0,65,2.59,,,2.93,WUHU216HW,2013-03-25 20:09:00,
2013-03-25 15:10:00,34.9,24.3,29.92,North,0,0.0,0.0,65,2.59,,,2.93,WUHU216HW,2013-03-25 20:10:00,
2013-03-25 15:13:00,34.9,24.3,29.92,North,0,0.0,0.0,65,2.59,,,2.93,WUHU216HW,2013-03-25 20:13:00,
2013-03-25 15:14:00,34.7,24.1,29.92,North,0,0.0,0.0,65,2.59,,,2.93,WUHU216HW,2013-03-25 20:14:00,
2013-03-25 15:15:00,34.7,24.1,29.92,North,0,0.0,0.0,65,2.59,,,2.93,WUHU216HW,2013-03-25 20:15:00,
2013-03-25 15:18:00,34.6,24.3,29.92,North,0,0.0,0.0,66,2.59,,,2.93,WUHU216HW,2013-03-25 20:18:00,
2013-03-25 15:20:00,34.4,24.1,29.92,North,0,0.0,0.0,66,2.59,,,2.93,WUHU216HW,2013-03-25 20:20:00,
2013-03-25 15:23:00,34.4,24.5,29.93,North,0,0.0,0.0,67,2.59,,,2.93,WUHU216HW,2013-03-25 20:23:00,
2013-03-25 15:25:00,34.4,24.5,29.93,North,0,0.0,0.0,67,2.59,,,2.93,WUHU216HW,2013-03-25 20:25:00,
2013-03-25 15:28:00,34.4,24.5,29.93,North,0,0.0,0.0,67,2.59,,,2.93,WUHU216HW,2013-03-25 20:28:00,
2013-03-25 15:30:00,34.2,24.3,29.93,North,0,0.0,0.0,67,2.59,,,2.93,WUHU216HW,2013-03-25 20:30:00,
2013-03-25 15:33:00,34.2,24.3,29.93,North,0,0.0,0.0,67,2.59,,,2.93,WUHU216HW,2013-03-25 20:33:00,
2013-03-25 15:34:00,34.2,24.3,29.93,North,0,0.0,0.0,67,2.59,,,2.93,WUHU216HW,2013-03-25 20:34:00,
2013-03-25 15:35:00,34.2,24.7,29.93,North,0,0.0,0.0,68,2.59,,,2.93,WUHU216HW,2013-03-25 20:35:00,
2013-03-25 15:38:00,34.0,24.5,29.93,North,0,0.0,0.0,68,2.59,,,2.93,WUHU216HW,2013-03-25 20:38:00,
2013-03-25 15:39:00,34.0,24.5,29.93,North,0,0.0,0.0,68,2.59,,,2.93,WUHU216HW,2013-03-25 20:39:00,
2013-03-25 15:40:00,33.8,24.3,29.93,North,0,0.0,0.0,68,2.59,,,2.93,WUHU216HW,2013-03-25 20:40:00,
2013-03-25 15:43:00,33.8,24.3,29.93,North,0,0.0,0.0,68,2.59,,,2.93,WUHU216HW,2013-03-25 20:43:00,
2013-03-25 15:44:00,33.7,24.1,29.93,North,0,0.0,0.0,68,2.59,,,2.93,WUHU216HW,2013-03-25 20:44:00,
2013-03-25 15:45:00,33.7,24.1,29.93,North,0,0.0,0.0,68,2.59,,,2.93,WUHU216HW,2013-03-25 20:45:00,
2013-03-25 15:48:00,33.5,24.3,29.93,North,0,0.0,0.0,69,2.59,,,2.93,WUHU216HW,2013-03-25 20:48:00,
2013-03-25 15:50:00,33.5,24.3,29.93,North,0,0.0,0.0,69,2.59,,,2.93,WUHU216HW,2013-03-25 20:50:00,
2013-03-25 15:53:00,33.5,24.3,29.94,North,0,0.0,0.0,69,2.59,,,2.93,WUHU216HW,2013-03-25 20:53:00,
2013-03-25 15:55:00,33.5,24.3,29.94,North,0,0.0,0.0,69,2.59,,,2.93,WUHU216HW,2013-03-25 20:55:00,
2013-03-25 15:56:00,33.5,24.3,29.94,North,0,0.0,0.0,69,2.59,,,2.93,WUHU216HW,2013-03-25 20:56:00,
2013-03-25 15:57:00,33.5,24.3,29.94,North,0,0.0,0.0,69,2.59,,,2.93,WUHU216HW,2013-03-25 20:57:00,
2013-03-25 15:59:00,33.5,24.3,29.94,North,0,0.0,0.0,69,2.59,,,2.93,WUHU216HW,2013-03-25 20:59:00,
2013-03-25 16:00:00,33.3,24.2,29.94,North,0,0.0,0.0,69,0.00,,,2.93,WUHU216HW,2013-03-25 21:00:00,
2013-03-25 16:01:00,33.3,24.6,29.94,North,0,0.0,0.0,70,2.59,,,2.93,WUHU216HW,2013-03-25 21:01:00,
2013-03-25 16:02:00,33.3,24.6,29.94,North,0,0.0,0.0,70,2.59,,,3.10,WUHU216HW,2013-03-25 21:02:00,
2013-03-25 16:04:00,33.3,24.6,29.94,North,0,0.0,0.0,70,2.59,,,3.10,WUHU216HW,2013-03-25 21:04:00,
2013-03-25 16:05:00,33.3,24.6,29.94,North,0,0.0,0.0,70,2.59,,,3.10,WUHU216HW,2013-03-25 21:05:00,
2013-03-25 16:06:00,33.1,24.4,29.94,North,0,0.0,0.0,70,2.59,,,3.10,WUHU216HW,2013-03-25 21:06:00,
2013-03-25 16:07:00,33.1,24.4,29.94,North,0,0.0,0.0,70,2.59,,,3.10,WUHU216HW,2013-03-25 21:07:00,
2013-03-25 16:09:00,33.1,24.0,29.94,North,0,0.0,0.0,69,2.59,,,3.10,WUHU216HW,2013-03-25 21:09:00,
2013-03-25 16:10:00,33.1,24.0,29.94,North,0,0.0,0.0,69,2.59,,,3.10,WUHU216HW,2013-03-25 21:10:00,
2013-03-25 16:12:00,33.1,24.0,29.94,North,0,0.0,0.0,69,2.59,,,3.10,WUHU216HW,2013-03-25 21:12:00,
2013-03-25 16:13:00,33.1,24.0,29.94,North,0,0.0,0.0,69,2.59,,,3.10,WUHU216HW,2013-03-25 21:13:00,
2013-03-25 16:14:00,33.1,24.4,29.95,North,0,0.0,0.0,70,2.59,,,3.10,WUHU216HW,2013-03-25 21:14:00,
2013-03-25 16:16:00,33.1,24.4,29.95,North,0,0.0,0.0,70,2.59,,,3.10,WUHU216HW,2013-03-25 21:16:00,
2013-03-25 16:17:00,33.1,24.4,29.95,North,0,0.0,0.0,70,2.59,,,3.10,WUHU216HW,2013-03-25 21:17:00,
2013-03-25 16:18:00,33.1,24.4,29.95,North,0,0.0,0.0,70,2.59,,,3.10,WUHU216HW,2013-03-25 21:18:00,
2013-03-25 16:19:00,33.1,24.4,29.95,North,0,0.0,0.0,70,2.59,,,3.10,WUHU216HW,2013-03-25 21:19:00,
2013-03-25 16:22:00,33.1,24.4,29.95,North,0,0.0,0.0,70,2.59,,,3.10,WUHU216HW,2013-03-25 21:22:00,
2013-03-25 16:23:00,33.1,24.4,29.95,North,0,0.0,0.0,70,2.59,,,3.10,WUHU216HW,2013-03-25 21:23:00,
2013-03-25 16:25:00,33.1,24.4,29.95,North,0,0.0,0.0,70,2.59,,,3.10,WUHU216HW,2013-03-25 21:25:00,
2013-03-25 16:27:00,33.1,24.4,29.95,North,0,0.0,0.0,70,2.59,,,3.10,WUHU216HW,2013-03-25 21:27:00,
2013-03-25 16:28:00,33.1,24.4,29.95,North,0,0.0,0.0,70,2.59,,,3.10,WUHU216HW,2013-03-25 21:28:00,
2013-03-25 16:30:00,33.1,24.4,29.95,North,0,0.0,0.0,70,2.59,,,3.10,WUHU216HW,2013-03-25 21:30:00,
2013-03-25 16:32:00,33.1,24.4,29.95,North,0,0.0,0.0,70,2.59,,,3.10,WUHU216HW,2013-03-25 21:32:00,
2013-03-25 16:33:00,33.1,24.4,29.95,North,0,0.0,0.0,70,2.59,,,3.10,WUHU216HW,2013-03-25 21:33:00,
2013-03-25 16:35:00,33.1,24.4,29.95,North,0,0.0,0.0,70,2.59,,,3.10,WUHU216HW,2013-03-25 21:35:00,
2013-03-25 16:37:00,33.1,24.4,29.95,North,0,0.0,0.0,70,2.59,,,3.10,WUHU216HW,2013-03-25 21:37:00,
2013-03-25 16:38:00,33.1,24.4,29.95,North,0,0.0,0.0,70,2.59,,,3.10,WUHU216HW,2013-03-25 21:38:00,
2013-03-25 16:40:00,33.1,24.4,29.95,North,0,0.0,0.0,70,2.59,,,3.10,WUHU216HW,2013-03-25 21:40:00,
2013-03-25 16:43:00,33.1,24.4,29.95,North,0,0.0,0.0,70,2.59,,,3.10,WUHU216HW,2013-03-25 21:43:00,
2013-03-25 16:44:00,33.1,24.4,29.95,North,0,0.0,0.0,70,2.59,,,3.10,WUHU216HW,2013-03-25 21:44:00,
2013-03-25 16:46:00,32.9,24.2,29.96,North,0,0.0,0.0,70,2.59,,,3.10,WUHU216HW,2013-03-25 21:46:00,
2013-03-25 16:48:00,32.9,24.2,29.95,North,0,0.0,0.0,70,2.59,,,3.10,WUHU216HW,2013-03-25 21:48:00,
2013-03-25 16:49:00,32.9,24.2,29.96,North,0,0.0,0.0,70,2.59,,,3.10,WUHU216HW,2013-03-25 21:49:00,
2013-03-25 16:51:00,32.9,24.2,29.96,North,0,0.0,0.0,70,2.59,,,3.10,WUHU216HW,2013-03-25 21:51:00,
2013-03-25 16:53:00,33.1,24.4,29.96,North,0,0.0,0.0,70,2.59,,,3.10,WUHU216HW,2013-03-25 21:53:00,
2013-03-25 16:54:00,33.1,24.4,29.96,North,0,0.0,0.0,70,2.59,,,3.10,WUHU216HW,2013-03-25 21:54:00,
2013-03-25 16:56:00,33.1,24.4,29.96,North,0,0.0,0.0,70,2.59,,,3.10,WUHU216HW,2013-03-25 21:56:00,
2013-03-25 16:58:00,33.1,24.4,29.95,North,0,0.0,0.0,70,2.59,,,3.10,WUHU216HW,2013-03-25 21:58:00,
2013-03-25 17:00:00,33.3,24.6,29.96,North,0,0.0,0.0,70,2.59,,,3.10,WUHU216HW,2013-03-25 22:00:00,
2013-03-25 17:02:00,33.3,24.6,29.95,North,0,0.0,0.0,70,2.59,,,3.26,WUHU216HW,2013-03-25 22:02:00,
2013-03-25 17:03:00,33.5,24.7,29.95,North,0,0.0,0.0,70,2.59,,,3.44,WUHU216HW,2013-03-25 22:03:00,
2013-03-25 17:05:00,33.5,24.7,29.96,North,0,0.0,0.0,70,2.59,,,3.44,WUHU216HW,2013-03-25 22:05:00,
2013-03-25 17:07:00,33.5,24.7,29.96,North,0,0.0,0.0,70,2.59,,,3.44,WUHU216HW,2013-03-25 22:07:00,
2013-03-25 17:08:00,33.5,24.7,29.96,North,0,0.0,0.0,70,2.59,,,3.44,WUHU216HW,2013-03-25 22:08:00,
2013-03-25 17:09:00,33.5,24.7,29.96,North,0,0.0,0.0,70,2.59,,,3.44,WUHU216HW,2013-03-25 22:09:00,
2013-03-25 17:11:00,33.5,24.7,29.96,North,0,0.0,0.0,70,2.59,,,3.44,WUHU216HW,2013-03-25 22:11:00,
2013-03-25 17:12:00,33.5,24.7,29.96,North,0,0.0,0.0,70,2.59,,,3.44,WUHU216HW,2013-03-25 22:12:00,
2013-03-25 17:13:00,33.5,24.7,29.96,North,0,0.0,0.0,70,2.59,,,3.44,WUHU216HW,2013-03-25 22:13:00,
2013-03-25 17:14:00,33.5,24.7,29.96,North,0,0.0,0.0,70,2.59,,,3.44,WUHU216HW,2013-03-25 22:14:00,
2013-03-25 17:16:00,33.5,24.7,29.96,North,0,0.0,0.0,70,2.59,,,3.44,WUHU216HW,2013-03-25 22:16:00,
2013-03-25 17:17:00,33.3,24.6,29.96,North,0,0.0,0.0,70,2.59,,,3.44,WUHU216HW,2013-03-25 22:17:00,
2013-03-25 17:18:00,33.3,24.6,29.96,North,0,0.0,0.0,70,2.59,,,3.44,WUHU216HW,2013-03-25 22:18:00,